GFSGBSN_prec_radar_000.txt.gz
Reflectivity
-1 -8 12 4 -3 13 9 -20 13 -20 -20 -20 -20 -20 -20 -20 -20 -20 -20 -20 -20 -20 -20 -20 -17 -20 -20 -4 -12 -20 -20 -20 -20 -20 -20 -20 -20 -20 -19 -2 -20 -20 -20 -20 -20 -20 -20
-2 -12 -5 -14 -20 15 14 -20 -20 -14 -20 -20 -20 -20 -20 -20 -20 -15 -20 -20 -20 -1 -20 -20 -20 -13 -19 -8 -20 -20 -20 -20 -20 -13 -20 -13 -3 -20 -20 -4 13 -20 -20 -20 -20 -20 -20
-19 -20 -19 13 2 10 -0 5 5 -20 -20 7 -20 -20 -20 -18 -20 -20 -20 -20 -20 -20 -20 5 -20 -20 8 -20 -20 -20 -20 -20 -20 -20 -7 -14 -4 15 -18 -20 -20 -20 26 7 -20 -20 -20
-16 -20 -20 -2 -14 -20 15 13 -3 -20 -20 -20 -20 -20 -20 1 -18 -20 -20 -20 -20 -20 10 -18 -2 2 -13 -20 -20 -20 -20 -20 -20 -20 -20 -20 -20 7 -18 -18 -20 -9 22 15 -20 -20 -20
-20 -20 -20 -20 -20 -20 7 -17 -3 -20 -20 -20 -20 -19 -20 6 9 -20 -16 -20 -20 -20 -7 16 -17 -3 -17 -20 -20 -20 -20 -20 -20 -20 -20 -20 -20 -3 10 -1 14 -18 -16 -14 -20 -20 -20
30 -20 -20 -20 -20 -20 4 9 -20 -20 -20 -20 -20 -20 -20 -9 14 -20 -11 -20 -20 9 -14 8 2 -6 -20 -20 -20 -20 -20 -20 -20 -20 -20 -6 6 9 -8 13 3 1 12 -20 -10 -20 -20
20 24 -14 -10 -20 -20 -20 -20 17 5 -20 18 -20 -20 -20 -20 -20 -3 -14 -20 -20 -11 -6 -20 -20 -20 -20 -20 -20 -20 -20 -20 -20 -20 -13 -13 11 4 -20 -20 -20 -3 8 -6 -11 -20 -14
12 14 23 19 -20 -20 -20 -20 9 -20 -20 -19 -20 -20 -20 -20 -10 3 8 9 -20 -20 6 11 -19 -18 -20 -20 -20 -20 -20 -17 -3 2 -20 8 -7 -20 -20 -20 -20 -20 14 -1 3 -5 -7
-11 5 33 30 18 -5 -10 -20 -20 -20 -12 17 -20 -20 -20 -20 -20 15 -2 -20 -20 -20 24 18 -14 -18 -20 14 -4 -20 -20 -20 -20 2 2 -14 -20 -20 -20 -19 -1 3 0 -4 10 -20 23
7 -19 16 25 27 11 18 13 12 2 12 19 -20 -20 -20 1 -0 -20 11 12 -18 -18 25 -3 -16 -15 -20 14 3 -20 4 -20 -2 -7 -2 14 -20 -20 -20 -20 -20 -6 -20 -8 -6 26 8
3 5 -5 13 15 11 18 21 16 20 15 7 -17 -20 -20 -20 13 8 -14 -20 -4 13 6 -20 1 -10 -20 -9 -4 -19 7 22 8 -20 21 9 -20 -20 1 -20 -20 -17 -18 -3 30 41 22
0 17 6 19 14 35 17 23 -18 21 14 -2 6 -8 -20 4 -20 -20 -15 -20 -12 9 -2 -11 -6 -4 15 4 -0 18 -3 23 -1 22 13 -13 -20 24 -7 -20 -20 -20 -20 8 46 27 18
18 19 17 14 24 29 30 20 16 23 17 4 4 -14 -12 -20 -16 -20 -20 6 12 -0 -20 -2 0 1 -12 13 13 28 20 12 11 11 9 9 -19 20 23 24 -7 21 9 28 35 39 36
20 20 24 21 21 23 33 -1 -20 19 21 9 10 3 2 -20 -20 -20 -17 9 -1 -20 -20 -20 -1 7 16 15 17 27 25 15 21 21 14 -4 -18 -16 -20 -16 16 17 0 41 20 31 7
-4 9 24 25 25 34 37 21 -5 22 20 19 18 19 -0 13 3 -19 -17 1 -3 5 10 11 23 18 12 13 20 11 11 24 -20 -12 19 32 4 13 -0 -8 25 10 28 33 46 14 -20
19 20 26 20 22 40 32 24 9 27 24 10 24 21 10 29 19 12 9 16 -2 10 -1 25 23 -20 7 -9 -7 3 12 -20 -19 6 4 17 18 13 21 25 15 19 20 41 28 -10 -16
10 21 20 17 24 39 30 13 19 36 18 18 11 22 9 29 25 18 8 1 -5 12 21 28 -16 -11 -1 -20 -20 -20 -20 -20 -18 -20 0 15 24 18 5 18 19 39 42 28 40 22 -20
14 18 24 29 36 38 26 10 29 35 20 22 18 20 13 20 20 14 6 -11 17 16 28 33 -20 -20 -19 9 -20 -20 -19 7 -20 -20 -5 17 31 17 9 8 19 10 33 36 17 17 21
-0 17 26 32 38 35 23 28 15 22 21 13 23 19 27 20 6 5 -3 10 23 24 18 29 -20 -20 -20 6 -9 -20 -20 3 -19 -0 8 28 32 19 34 39 36 43 33 -8 12 -20 12
-20 2 21 31 34 33 34 34 33 14 -6 -17 18 26 29 30 -12 7 3 12 19 17 12 1 -20 -20 -20 -20 -20 -5 -7 -13 -4 12 20 33 26 42 25 2 0 -3 -14 -16 -19 -20 -20
-20 -12 22 27 27 27 28 26 42 25 10 1 15 11 9 19 4 -6 21 16 22 25 10 -20 -20 -20 1 -15 -20 -20 -19 -10 -11 -9 19 36 41 28 7 -20 8 9 -2 15 -20 -20 -20
-20 -3 24 16 23 33 26 16 43 25 23 17 19 10 19 17 -12 -4 -10 11 21 28 34 -19 -20 -20 -19 -20 -20 -20 -8 -16 -20 -20 -20 2 6 -3 4 -20 -20 -10 -20 -20 -13 -20 -20
-20 -13 19 17 26 24 20 42 39 24 22 17 18 1 4 0 -14 14 -9 4 6 32 24 9 -20 -11 10 -18 13 11 -12 -20 -20 -20 -20 -20 -20 -14 -20 -20 -20 -20 -20 -20 -20 -20 -20
-20 -20 5 12 16 24 20 40 36 22 18 1 1 1 24 22 -19 -14 8 8 13 32 29 22 -20 18 17 -13 20 21 -13 -20 -12 0 -20 -20 -20 -20 -20 -20 -20 -20 -20 -20 -20 -20 -20
2 -20 -20 14 7 17 19 42 31 24 18 -9 0 9 26 21 6 -11 -20 10 3 21 29 27 22 -9 -11 -20 26 -7 30 1 -20 -19 -7 -20 5 5 -20 -20 -20 -20 -20 -20 -20 -20 -20
5 -12 -0 8 18 17 31 31 12 22 14 13 -8 14 24 20 29 -17 -20 3 28 30 32 27 14 3 20 22 17 19 3 2 -19 23 -10 -7 -5 -20 -20 -20 -20 -20 -20 -20 -20 -20 -20
-19 -10 6 6 9 14 3 27 24 24 18 7 -5 -17 18 20 3 -14 -20 -4 26 30 27 25 18 14 21 18 0 -12 -7 -20 -16 -18 -15 15 -4 -4 -20 -13 -20 -20 -20 -20 -20 -20 -20
-20 -15 3 4 8 10 4 32 24 28 13 12 -3 -20 12 12 7 3 -20 8 33 28 32 12 4 25 23 13 -4 -20 -20 -20 -20 -20 -20 15 19 12 7 -18 -20 -20 -20 -20 -20 -20 -20
-20 -20 3 13 18 16 7 31 36 25 22 17 5 -20 14 18 1 -20 -20 -20 30 27 33 29 28 17 11 -0 -20 -18 -20 -20 -19 -20 -20 3 -13 -5 -20 -20 -15 -18 -20 -20 -20 -20 -20

GFSGBSN_prec_radar_003.txt.gz
Reflectivity
-20 -20 -20 -20 -20 13 -13 7 -20 -20 -20 -20 -20 -20 -20 -8 -20 -20 -20 -20 -20 -20 -20 2 3 6 -20 -7 -11 -20 -20 -20 -20 -20 -20 -20 -20 -20 -20 -20 -20 -20 -20 -20 -20 -20 -20
13 -20 -20 -20 -20 5 -20 -20 15 -20 -4 -17 -20 -20 -20 -20 -20 -20 -20 -20 -20 -16 -15 -20 -20 -8 -2 -20 -20 -20 -20 -20 -20 -20 -20 -20 -17 -20 -20 -20 -20 -12 -20 -20 -20 -20 -20
-0 26 -20 -20 -20 -11 -5 -20 15 7 14 -20 -2 -20 -20 -20 -20 -20 -20 -20 2 -20 -20 -20 -20 -20 -20 -20 -20 -20 -20 -20 -20 -20 -20 13 12 -20 4 -20 -20 -20 -20 -14 -20 -20 -20
1 -6 31 -18 -20 -20 13 -20 -18 6 17 11 -18 7 -20 -20 -20 -20 -20 -20 -20 -3 -20 -15 -20 9 -16 -20 -20 -20 -20 -20 -20 -20 -20 -20 -16 -20 8 -20 -20 -7 11 10 -20 -20 -20
-20 -8 9 28 4 -20 -20 -20 -18 8 16 18 7 -8 -20 -20 -20 -1 -20 -20 -20 -20 -20 -5 -2 -8 -20 -20 -20 -20 -20 -20 -20 -20 -20 -20 -20 -6 -19 -12 5 -9 2 12 -12 -20 -20
-20 -20 -3 14 7 7 -20 -20 -11 -4 9 12 14 -2 -20 -20 -20 4 -11 -20 -20 15 -20 -14 -18 13 -20 -20 -20 -20 -20 -20 -20 -20 -20 -20 -20 -20 -20 -1 5 2 6 -16 -18 -20 -7
-19 -20 -8 3 21 22 19 17 -17 4 -20 -20 16 19 6 -20 -20 7 -20 -20 -20 -20 -1 -20 -20 -20 -20 -20 -20 -20 -20 -20 -20 -20 -20 -20 6 6 -20 -20 -20 -20 0 12 -16 -20 18
14 5 -6 13 15 25 23 -3 -19 -20 10 -16 -1 14 14 -20 -20 -20 -20 -14 -20 -20 -20 -20 -20 -20 -20 -20 -20 -20 -20 -20 -10 -20 -20 -15 -13 -20 -20 -20 -20 -20 -20 -19 -4 -20 25
-20 10 11 5 14 0 33 20 17 -5 -20 -14 7 16 7 -18 2 12 -20 -20 -20 -20 -17 -19 -20 -20 -20 -20 -13 -16 -20 -20 -20 0 -20 -20 -20 -20 -20 -20 -15 -20 -20 -20 -20 -20 -20
6 -3 10 14 -4 9 13 35 25 19 21 13 22 10 1 -12 -19 -20 0 -20 -20 1 7 0 -20 -11 5 -6 17 -15 -20 -20 7 -18 -20 -20 -20 -20 -12 -20 -20 -20 -20 -20 -20 -2 8
12 17 9 11 24 6 22 34 36 22 19 26 20 19 -20 -20 -20 -20 -20 -20 -19 -9 -20 -20 -20 -20 2 -3 -1 -20 -16 21 9 -20 11 -18 -20 -20 -20 -20 -20 -20 -20 -20 10 10 27
10 2 9 20 4 11 16 -7 29 30 26 26 -1 13 -4 -20 -20 -20 -20 -20 -6 -20 -20 -20 -10 -20 1 6 3 3 -4 13 17 25 30 -10 -20 -13 -20 -20 -12 -20 -12 -17 16 9 15
-20 -2 20 17 -11 11 24 -18 18 33 22 27 9 15 -1 -20 -20 -20 -20 -20 -9 -14 -20 -20 -11 -6 -15 -5 4 8 5 24 32 26 11 -1 -20 -20 -20 -20 -20 11 12 15 5 11 0
-14 11 19 21 0 32 27 16 30 36 24 29 7 29 -0 -20 -20 -20 -20 8 -10 -20 -20 -20 -19 -20 2 -17 9 5 18 33 24 30 9 3 -20 -20 -20 -20 -20 -20 6 12 -19 -20 -15
13 16 23 20 3 33 13 21 21 40 25 25 41 22 -19 -15 -15 -20 -20 -17 -20 -20 -20 -18 -0 28 23 6 -5 11 2 33 -14 -16 -20 -12 -17 -13 -20 -20 -20 -20 13 -20 -20 -14 17
6 -10 16 16 16 17 24 21 19 38 30 38 25 25 15 -2 13 -13 -0 -20 -20 -20 -20 -9 25 16 -20 -9 10 15 -11 -19 -20 -20 -20 -17 2 22 22 2 11 1 -20 14 21 21 -0
-17 -20 -14 24 28 28 33 33 29 36 30 37 6 14 27 29 29 28 4 -20 -20 -20 -14 15 20 17 -20 -20 -20 -19 -20 -20 -20 -20 15 -19 2 26 34 -6 -20 16 31 8 21 29 33
-19 -20 -20 20 24 36 32 32 37 30 34 36 40 2 32 26 28 24 2 -20 -14 -18 -4 24 29 10 -20 -20 -20 -20 -20 -19 -11 -20 -6 -7 19 20 15 -12 3 7 34 10 8 12 34
-20 -18 -20 15 20 34 37 38 26 8 28 44 30 32 23 19 25 8 -1 2 -10 4 13 22 26 5 8 -15 -0 -20 -20 -20 -20 -16 -15 -0 15 17 18 34 29 23 15 7 16 29 39
6 -20 -20 -12 14 36 34 27 26 17 28 44 29 17 29 35 1 -11 -3 1 3 -20 -1 27 21 8 15 -20 -20 -20 -20 0 -4 1 9 18 31 32 12 15 -5 6 1 22 31 43 17
15 -8 -20 -20 16 24 23 30 20 44 36 35 11 22 7 25 9 8 3 11 0 12 9 28 18 -14 -13 -20 -20 -20 -20 -20 -10 9 9 16 30 34 28 -3 19 16 22 38 43 26 -10
-20 -20 -20 -20 13 14 25 12 33 28 42 17 -20 24 -13 0 -20 -20 -17 8 9 9 16 1 20 -20 9 -20 -20 -20 -20 -20 -20 2 8 23 32 39 17 7 23 30 31 21 28 13 10
-9 -4 4 7 -0 8 25 35 35 36 37 28 -18 -20 -3 -16 -17 -9 -15 -20 -20 -18 11 -19 2 12 9 -12 1 -20 -20 -20 -19 -5 3 18 31 29 32 17 20 20 -20 -20 -19 -10 -20
10 -20 -7 3 9 10 18 24 28 32 34 31 -2 30 28 9 -14 11 1 12 8 11 -0 -3 12 14 3 -17 22 -13 -10 -20 10 2 -20 -18 3 9 -8 -2 -12 -20 -20 -20 -20 -20 -20
10 4 -18 -20 8 17 18 18 29 33 23 17 -20 3 9 21 4 30 25 -20 -20 -20 13 12 17 -14 18 24 16 34 23 8 -9 8 -20 -20 -20 -20 -20 -20 -20 -20 -20 -20 -20 -20 -20
-20 8 -20 -6 11 15 -1 28 35 32 35 28 2 15 17 14 1 -14 20 -20 -20 -18 22 23 22 20 32 25 3 32 16 -11 -12 6 -20 -20 -20 -18 -20 -20 -20 -20 -20 -20 -20 -20 -20
19 -20 -20 -5 13 10 9 17 36 8 20 14 20 -11 14 15 -5 -10 14 -5 -20 11 29 31 26 24 19 -4 15 11 -9 -20 -20 -17 -20 -2 -9 -19 -20 -20 -20 -20 -20 -20 -20 -20 -20
17 -1 -3 -16 12 15 13 16 33 28 25 20 -1 -6 -4 2 3 -8 4 -5 -14 18 31 28 28 24 19 15 34 15 -20 -20 -20 -20 -20 -1 -8 -0 5 -9 -20 -20 -20 -20 -20 -20 -20
-16 1 -20 -19 15 10 16 14 24 29 20 20 9 -0 -6 6 2 -1 -6 -17 1 22 30 24 27 17 1 -19 -17 3 -20 -20 -20 -20 -20 -20 -20 -20 -20 -19 -20 -20 -20 -20 -20 -20 -20

GFSGBSN_prec_radar_006.txt.gz
Reflectivity
14 20 30 17 -20 -20 -20 13 -20 6 14 13 -20 -20 -20 -20 -20 -20 -20 -20 -20 -20 -20 -20 -20 -20 -20 -3 -20 -20 -20 -20 -20 -20 -20 -20 -20 -20 -20 -20 -20 -20 -20 -20 -20 -20 -20
-18 1 8 13 27 -20 -20 -20 2 -20 -1 4 -8 -20 -20 -20 -20 -20 -20 -20 -20 -20 -13 -20 -20 -20 -20 -20 -20 -20 -20 -20 -20 -20 -20 -20 -20 -20 -20 -20 -20 -20 -20 -20 -20 -20 -20
-20 -20 -20 -20 14 30 10 -20 10 -20 -5 10 8 -20 -20 -20 -20 -20 -20 -20 -16 -20 -20 -20 -20 -20 -2 -20 -20 -20 -20 -20 -20 -20 -20 -1 -20 -20 6 -20 -20 -20 -20 -20 -20 -20 -20
5 -17 -20 -3 -6 10 28 -12 -20 -15 -16 4 17 9 7 -20 -20 -20 -20 -1 -20 5 -20 8 -20 -2 -18 -20 -20 -20 -20 -20 -20 -20 -20 -20 -20 18 -20 -14 -20 -20 -18 -20 -20 -20 -20
17 19 14 -18 -3 -14 14 22 -3 -20 -10 10 14 10 12 -20 -20 -20 -2 -20 -20 -20 -20 13 -20 -20 -20 -20 -20 -20 -20 -20 -20 -20 -20 -8 -20 -20 -20 10 4 -20 -20 -20 -20 -20 -20
11 -20 11 12 -20 -20 2 3 26 17 14 18 13 14 12 -5 -20 -20 14 -20 -20 10 2 8 7 1 -20 -20 -20 -20 -20 -20 -20 -20 -20 -20 -20 -20 -20 1 3 -10 -9 -20 -20 -19 -18
8 5 -6 10 12 -20 -16 10 6 24 -5 16 23 -0 2 14 -20 -20 -20 -20 -20 -20 5 -20 -20 -20 -20 -20 -20 -20 -20 -20 -20 -20 -20 -20 -9 -5 -20 -20 -20 -20 -20 -20 -20 -20 -20
-20 9 2 11 8 4 -11 0 14 23 19 14 18 0 18 18 9 -20 -20 -20 -20 -20 -20 -20 -20 -20 -20 -20 -20 -20 -20 -20 -20 -18 -20 -13 -0 -20 -20 -20 -20 -20 -16 -20 -20 -20 -13
-20 -20 16 15 10 6 18 -10 21 33 24 2 17 -10 11 15 17 14 -13 -20 -20 -20 -20 -20 -20 -20 -20 -20 -20 -16 -20 -20 -20 -17 -10 -13 -20 -20 -20 -20 -20 -20 -20 -20 -20 -20 -20
-20 -16 -17 17 -3 14 13 5 -4 21 32 24 22 25 -2 22 16 -20 7 -20 -20 -20 -19 -20 -20 -14 -2 4 -5 -20 -20 -20 -1 -20 -20 10 -20 -20 -20 -9 -20 -20 -20 -20 -20 10 -20
-20 -20 -19 15 -16 11 17 20 11 20 40 29 28 24 16 -3 -20 -20 -20 -20 -20 -6 -20 -20 -20 -20 2 -15 -20 -20 -20 -10 -8 -20 -9 -20 -20 -20 -20 -20 -20 -20 -20 -20 -19 2 12
-20 -1 10 4 10 23 10 -20 -20 10 21 37 36 26 21 14 -20 -20 -20 -20 -20 -5 -20 -20 -11 -20 6 -1 6 -20 -6 10 4 9 7 -18 -16 -20 -20 -20 -20 4 6 -1 9 15 -4
-20 1 11 10 23 25 20 -20 12 8 6 37 41 26 6 28 -20 -20 -8 12 -19 -20 -20 -11 -16 -20 -20 -6 -3 1 -5 14 32 19 16 27 -2 -13 -20 -20 -20 -11 14 18 16 10 -1
-20 -18 -7 -20 8 13 20 29 24 23 9 33 39 35 15 -19 -20 -20 -15 4 -20 -20 -20 -20 -20 -15 -17 -20 3 -20 11 12 13 26 33 -11 14 23 -20 -19 -0 -17 -6 -7 -9 -20 -20
-20 -20 -20 -20 -20 20 18 22 25 15 23 27 35 31 11 17 -20 -20 7 -16 -20 -20 -20 -20 -4 -1 -1 10 -15 12 6 -11 -9 15 5 8 11 -8 -5 -20 6 3 8 -6 10 8 -2
-20 15 -18 -9 -7 9 22 16 26 21 23 30 35 45 19 10 -7 6 18 -20 -20 -20 -20 -20 -20 -5 -20 -12 -2 10 -12 -20 -20 -16 6 -8 -20 -20 -20 -4 -20 -17 -20 -10 10 -2 -14
-20 15 -1 -20 -16 -10 23 29 29 33 26 31 40 34 23 12 1 16 18 -20 -20 -20 -20 -20 6 -1 -20 -20 -20 -17 -20 -20 -20 -20 -20 -20 -20 -18 -20 -16 -13 1 15 8 -20 -20 13
-20 -13 -20 -20 -20 -3 22 35 33 35 33 35 47 44 24 8 34 29 -5 -19 2 -20 -20 3 -5 -2 -20 -20 -20 -20 -20 -20 -20 -20 -20 -10 19 9 6 12 -7 -15 -20 -20 -12 -20 -7
-20 -20 8 -20 -20 -20 22 33 32 36 24 36 39 30 25 22 23 12 -19 -3 -17 6 7 7 12 -10 -20 -5 -20 -20 -20 -20 -20 -20 -17 -4 24 15 9 -11 11 26 -20 -20 -20 -12 8
1 10 -13 -13 -20 -20 14 18 27 38 41 38 37 29 32 32 10 -13 -1 7 3 -5 -7 15 22 7 11 10 -20 -20 -20 -20 -9 9 18 22 27 19 21 21 14 18 4 -19 -4 7 6
9 15 6 -20 4 -20 8 18 21 32 34 36 32 30 17 35 23 -20 -10 -4 -11 4 -8 1 19 21 17 4 -20 -20 -20 -2 14 23 28 28 20 28 26 31 37 37 1 10 36 16 12
16 18 16 -20 -20 -20 6 18 29 34 21 37 38 21 1 -20 -14 10 -1 12 8 12 8 18 11 8 -11 -15 -20 -20 -10 5 -20 6 30 32 26 34 30 12 -20 10 3 -1 3 18 29
-20 19 16 -6 -20 -20 8 11 26 18 25 28 26 20 -19 -20 -20 -4 -12 -20 -0 1 -15 11 11 -0 25 -20 -10 -3 -20 -20 -8 2 6 12 20 37 38 19 11 20 17 27 33 37 33
-3 19 -11 9 -20 -13 8 16 19 36 37 30 34 7 23 19 -6 -16 -13 -18 -20 -20 -20 5 -16 2 -12 3 -9 16 -18 -20 -20 -20 -20 -9 20 31 41 37 19 -15 11 31 22 25 31
-20 18 20 15 -20 -20 8 14 17 34 32 41 14 -11 -20 -17 -20 -18 7 -7 -15 -20 -20 1 8 2 0 11 -7 25 -13 11 -20 -20 -20 -20 -20 -20 -19 -20 -19 -20 -20 -20 -20 11 3
-18 11 -8 0 -20 -7 -2 12 18 21 18 26 29 -14 -20 3 -11 1 -9 -12 -11 -20 -20 -20 7 22 18 -9 33 19 -9 -20 -20 -20 -20 -20 -20 -20 -20 -20 -20 -20 -20 -20 -20 -20 -20
5 18 4 -20 -20 -20 5 10 31 38 38 32 20 27 7 16 -12 -20 -20 -20 -20 -20 -15 5 28 26 12 6 33 -18 -6 -20 -20 -20 -20 -20 -18 -20 -20 -20 -20 -20 -20 -20 -20 -20 -20
17 9 -20 -13 8 -11 -7 11 21 27 25 36 31 1 -10 -13 -13 -20 -20 -20 -20 -19 -5 14 25 28 21 34 -2 21 -20 -20 -20 -20 -20 -14 -13 -20 -20 -20 -20 -20 -20 -20 -20 -20 -20
3 -13 7 -20 7 -20 -20 7 15 5 25 21 29 8 5 -14 -20 -20 -20 -13 -20 -20 -20 13 20 26 9 28 -4 -15 -20 -20 -20 -20 -20 -20 -20 -20 -20 -20 -20 -20 -20 -20 -20 -20 -20

GFSGBSN_prec_radar_009.txt.gz
Reflectivity
-20 -20 -20 -17 -20 19 23 1 -20 -20 -7 -20 3 -11 -20 -20 -5 3 -14 -20 -20 -20 -20 -20 -20 -20 -20 -13 -20 -20 -20 -20 -20 12 -3 -6 -20 -20 -20 -20 -20 -20 -20 -20 -20 -20 -20
11 -2 -20 -20 3 2 -16 24 24 -3 -13 8 -20 19 -6 -20 -20 2 1 -20 -20 -20 -12 -20 -20 -20 -20 -20 -20 -20 -20 -20 -20 -20 -20 -20 -17 -20 -20 -20 -20 -20 -20 -20 -20 -20 -20
-20 -18 4 11 -20 -19 -20 -18 28 25 -3 11 -15 5 12 -12 -20 -13 -14 -19 7 -8 -20 -20 -20 -20 -20 -20 -20 -20 -20 -20 -20 -20 -20 -20 -20 -4 10 -20 -20 -20 -20 -20 -20 -20 -20
-20 14 5 -9 3 5 -18 7 4 27 18 -19 14 17 20 13 -17 -20 -0 -16 15 -5 -10 -20 -20 -12 -20 -20 -20 -20 -20 -20 -20 -20 -20 -20 6 -15 15 -12 -8 4 -13 -20 -20 -20 -20
-20 -20 -16 13 4 12 11 3 7 16 24 21 -5 11 9 11 7 -20 8 -20 -13 -20 11 14 -20 -20 -20 -20 -20 -20 -20 -20 -20 -20 -20 -20 3 -20 -19 7 3 -17 -20 -20 -15 -20 -20
-20 -20 -20 -6 20 21 12 6 2 2 14 23 6 -15 23 15 12 -14 -20 20 9 13 13 -11 -18 -10 -20 -20 -20 -20 -20 -20 -20 -20 -20 -20 -20 -11 -18 10 -16 -8 7 -20 -20 -20 -20
-20 -20 -20 -20 -20 12 18 12 8 2 -19 21 22 21 23 24 7 8 5 -20 -20 -20 9 -20 -20 -20 -20 -20 -20 -20 -20 -20 -20 -20 -20 -20 -6 -14 -20 -20 -3 -20 -20 -20 -20 -20 -20
-20 -20 -20 2 6 10 17 12 7 -4 4 -15 26 25 24 22 22 10 -19 -20 -20 -20 -20 -20 -20 -20 -20 -20 -20 -20 -20 -20 -20 -20 -20 -20 -20 -20 -20 -20 -20 -20 -17 -12 -20 -20 -20
-20 -20 -7 8 -16 17 16 17 14 15 1 -2 36 31 21 25 -11 19 -20 -20 -20 -20 -20 -20 -20 -20 -20 -20 -20 -20 -20 -20 -20 -15 -20 -20 -20 -20 -20 -20 -20 -20 -20 -20 -16 -20 -20
-20 -20 -20 5 2 16 16 19 10 17 14 -6 22 29 27 25 24 4 7 -20 -20 -20 -20 -20 -20 -20 -20 5 2 -20 -20 -20 -20 -17 -2 -9 -20 -20 -20 -20 -20 -8 -20 -20 -20 -0 -10
-18 14 -2 -19 -20 3 -1 18 24 13 10 -17 39 32 27 27 1 10 -20 -20 -20 -20 -20 -20 -20 -20 -8 -11 -20 -20 -20 -19 -10 -20 -20 -20 -20 -20 -20 -20 -20 -10 -20 -20 -20 6 6
17 20 -7 4 -20 -20 17 18 27 3 -18 -1 29 35 39 32 -15 12 -14 -20 -20 -20 -20 -20 -20 -20 14 9 -7 -20 -10 -15 -11 4 -2 -20 -20 -20 -20 -20 -20 -8 -9 -17 -20 -20 9
19 19 -20 -20 4 -3 22 20 25 -1 5 22 25 35 35 36 -18 -20 -20 -20 -17 -20 -20 -3 -20 -9 -20 -20 -7 -9 12 13 8 7 12 11 -12 -19 -20 -20 -20 -20 6 10 16 11 -1
-20 -9 -3 4 -20 -10 15 24 35 21 21 13 26 29 30 38 22 33 -20 -20 -20 -20 -20 -20 -20 -18 -20 -20 -19 -19 6 4 3 22 26 -11 6 -5 -19 -20 -20 -20 -8 -4 -4 -18 -20
17 -16 18 -20 -20 -17 11 21 28 22 20 25 17 33 36 44 18 8 -20 -11 -20 -20 -20 -20 -18 -14 -4 -17 -20 -3 9 -17 -20 0 6 -8 -20 -20 -20 -20 12 23 19 3 -9 5 19
14 18 2 10 17 -18 14 13 16 30 33 20 20 27 37 42 -7 -20 -17 -20 -20 -20 -20 -20 -20 -20 -20 -4 -9 -11 -20 -20 -14 -20 -15 -10 -20 -20 -20 -20 -20 -11 -5 17 23 16 20
17 15 20 -20 8 -15 6 6 23 31 25 32 37 33 35 39 10 5 7 -20 -20 -20 -20 -20 -20 -14 -19 -20 -20 -20 -20 -20 -20 -20 -20 -5 -2 -20 -20 -14 -20 -20 -16 8 -8 -20 -15
19 16 5 16 16 -20 -17 3 15 32 30 21 18 23 34 40 29 22 13 -20 -20 -20 -20 -20 -20 -6 -20 -20 -20 -20 -20 -20 -20 -20 -18 -6 -19 -20 -20 7 -7 11 -20 2 17 -20 -20
17 15 -14 16 -20 -20 -13 10 7 21 31 33 27 34 32 36 15 17 -8 -12 -9 -20 -20 -19 -0 -11 14 -20 -20 -20 -20 -20 -20 -20 -20 -17 17 -6 13 25 22 0 -20 -20 -20 19 -20
17 16 13 15 -20 -0 -8 6 7 25 35 29 21 39 38 37 12 -13 -17 9 2 -18 -20 -9 23 24 22 -20 -20 -20 -20 -20 -20 -20 -1 15 32 18 16 21 30 7 -20 -20 -20 -19 -20
17 -20 1 -20 2 -20 -3 9 11 28 28 14 22 32 33 30 20 -15 -8 -6 -20 -4 3 14 21 19 17 -7 -19 -18 -20 -20 -4 16 25 35 17 17 20 27 29 8 16 -20 -16 -20 -14
-20 9 -19 -12 17 -20 -10 6 13 18 25 2 40 19 -1 -19 -1 -18 -11 -20 10 -17 19 8 20 24 24 7 -20 -20 -16 -19 7 18 22 27 29 33 17 31 25 -19 -9 3 -20 -20 6
9 7 -14 -13 -12 -20 -20 -2 13 29 33 36 31 22 16 -18 -2 3 -7 -11 -2 1 -2 -20 14 19 3 7 -5 -20 -20 1 8 5 21 32 33 30 17 25 -9 10 -6 -16 -10 9 4
18 -2 20 -6 -20 -20 -9 -6 16 33 35 34 31 26 30 18 -8 -11 -17 -20 -19 4 -14 -3 -20 13 5 -20 -16 -20 -20 -14 6 9 11 23 36 33 28 37 21 32 -4 1 -16 -13 0
7 21 0 15 -20 -20 -4 -6 14 23 29 24 33 21 4 1 -17 -20 -16 -7 24 18 -20 -20 -20 -20 -9 3 15 7 7 13 -12 -13 -20 -15 21 1 23 -16 9 19 25 28 26 20 -12
4 6 -17 17 -20 -20 -20 -10 14 14 19 7 5 33 21 23 5 -17 28 16 28 22 -16 -20 -20 -15 26 26 21 23 -19 -20 -20 -20 -20 -20 -20 -10 6 -20 -20 -20 -20 -18 20 -0 -20
17 -10 -5 11 -20 -20 1 -5 13 8 15 15 29 12 -11 -20 -20 -20 -16 -17 -20 -20 -20 -20 -20 -2 10 28 17 17 -20 -20 -20 -20 -20 -20 -20 -20 -9 -19 -20 -20 -20 -20 -20 -20 -20
5 8 1 3 5 -20 -4 -20 12 8 16 16 18 15 -20 -20 -20 -20 -20 -20 -20 -20 -5 -13 21 19 25 28 18 -8 -20 -20 -20 -20 -20 -20 -20 -20 -20 -20 -20 -20 -20 -20 -20 -20 -20
-9 18 -18 -6 5 -20 -12 -20 8 7 9 24 23 37 30 -0 -8 -20 -20 -20 -20 -20 -16 -19 20 23 29 20 -20 -16 -20 -20 -20 -20 -20 -20 -20 -20 -20 -20 -20 -20 -20 -20 -20 -20 -20

GFSGBSN_prec_radar_012.txt.gz
Reflectivity
-20 6 -1 -20 -20 7 11 -10 14 23 19 -18 -20 -16 22 -20 -20 -20 -5 -20 -20 -20 -20 4 -17 -20 -7 5 -5 -20 -20 -20 -20 5 -20 9 -20 -20 -20 -20 -20 -20 -20 -20 -20 -20 -20
-20 -20 8 -20 -10 3 13 10 -4 -20 17 22 -10 25 -15 8 11 -20 -20 3 -15 -20 -20 -20 -5 -20 -20 -20 -20 -20 -20 -20 -20 2 7 2 -20 -20 -20 -20 -20 -20 -20 -20 -20 -20 -20
-20 -20 -20 -20 11 15 6 14 11 1 -20 25 23 23 20 -17 15 -20 -20 3 -20 -20 -20 -20 -4 -20 -20 -20 -20 -20 -20 -20 -20 -20 -20 -20 -20 -20 -20 -20 -20 -20 -20 -20 -20 -20 -20
-20 -20 -20 -20 -20 -20 13 8 8 5 -14 11 29 7 14 22 17 -2 -18 4 -11 -7 14 -20 7 -20 -20 -20 -20 -20 -20 -20 -20 -20 -20 -20 -10 -4 14 -20 -20 -4 -14 -19 -20 -20 -20
-20 -20 -20 -20 -20 1 7 14 9 16 -10 9 8 21 13 21 23 7 3 -20 -15 -20 -4 11 -11 -20 -20 -20 -20 -20 -20 -20 -20 -20 -20 -20 -16 -20 -20 -3 -20 -19 -20 -20 -20 -20 -20
-20 -20 -20 -20 -1 18 6 16 14 18 14 -16 11 32 18 24 24 3 11 21 9 -20 9 -13 -20 -20 -20 -20 -20 -20 -20 -20 -20 -20 -20 -20 -20 -15 -20 -16 -20 -20 -12 -20 -19 -19 -20
-20 -20 -20 -20 -20 -20 -20 15 16 14 9 13 8 15 4 -5 24 16 1 -5 -19 14 -20 -20 -20 -20 -20 -20 -20 -20 -20 -20 -20 -20 -20 -20 -16 6 -20 -20 -20 -20 -20 -20 -20 -20 -20
11 -20 -20 -18 -20 -20 -20 13 11 10 12 16 10 -6 12 26 26 26 -15 -20 -20 -20 -20 -20 -20 -20 -20 -20 -20 -20 -20 -20 -20 -20 -20 -20 -20 -20 -20 -20 -20 -14 -20 -20 -20 -20 -20
14 -8 17 -10 -20 -20 -20 -20 9 -3 16 19 9 -4 16 33 34 28 0 -13 -20 -20 -20 -20 -20 -20 -20 -20 -20 -20 -20 -20 -20 -20 -20 -20 -20 -20 -20 -20 -20 -20 -20 -20 -20 -20 -20
15 10 11 -20 -20 -20 -20 -19 13 7 6 24 2 -5 13 26 41 24 8 1 -20 -20 -20 -20 -18 -20 -20 -20 -20 -20 -20 -20 -20 -17 -20 -20 -20 -20 -20 -20 -20 -20 -20 -20 -20 -4 -12
-20 -5 -10 -6 -20 -20 -2 13 23 24 10 24 -19 -1 -0 30 38 33 0 -20 -20 -20 -20 -20 -20 -20 -18 -19 -19 -20 -20 -20 -19 -20 -20 -20 -20 -20 -20 -20 -20 -20 -20 -20 -20 5 -14
5 5 10 16 -20 -20 20 20 22 18 11 8 7 2 14 34 39 34 29 -20 -20 -20 -20 -20 -20 14 12 -20 -7 -20 2 -9 -20 -13 -20 -20 -20 -20 -20 -20 -20 -20 -13 -20 -11 -7 8
12 4 4 17 18 -20 -13 20 -2 17 32 26 12 7 22 28 41 36 21 14 -20 -20 -20 -9 -10 7 6 0 -5 -0 8 3 -10 1 2 4 -20 -12 -15 -20 -16 11 5 3 15 9 -20
4 15 15 17 20 17 -20 4 13 35 36 22 21 18 32 28 38 34 17 19 -11 -20 -20 -20 -15 -4 -4 -2 -18 -11 10 5 7 -1 5 -14 -19 -20 -20 -20 -20 -20 5 -3 -20 -20 -20
15 17 18 15 21 18 2 2 -19 12 17 28 10 17 25 37 40 32 12 -10 -20 -20 -20 -20 -16 -20 -16 -20 -19 -5 -20 1 -20 5 -20 -19 -20 -20 -20 -20 -7 18 13 -11 1 -18 -9
5 16 17 16 19 -9 -20 -16 2 19 27 33 11 20 10 33 38 42 15 -20 -20 -20 -20 -20 -20 -20 -20 -10 -20 7 -7 -20 -20 -20 -11 -13 8 -20 -20 -18 -19 -16 4 18 20 3 -14
9 21 19 16 20 -20 6 -16 6 11 23 20 24 27 30 33 36 39 25 -20 -20 -20 -20 -20 -20 -20 -20 -20 -20 -19 -20 -20 -20 -20 -20 -18 -2 -20 2 -20 -20 -14 6 22 -1 15 1
12 19 18 16 -20 -20 8 -9 10 16 20 28 33 15 30 27 39 40 21 -20 -20 -20 -20 -20 -20 -20 -20 -20 -20 -20 -20 -20 -20 -20 -18 -19 13 -19 -20 -8 -20 -20 -20 -20 8 -20 -20
20 19 17 -3 -20 3 -8 2 13 7 31 31 30 16 24 32 22 29 -17 -20 -20 -20 -20 -20 -20 -20 -19 -20 -18 -20 -20 -20 -20 -20 -20 -20 15 5 -17 14 15 25 6 -16 -20 -0 -19
18 2 17 -20 5 20 -20 2 14 18 21 25 27 34 34 34 26 15 -20 -20 -20 -20 -20 -20 -4 -9 -15 6 -20 -20 -20 -20 -20 -20 -20 -19 5 8 1 18 30 26 22 22 18 5 -20
7 -6 19 8 22 19 -20 -6 18 22 4 21 23 31 25 29 29 1 -16 -20 -5 -10 -20 -20 -8 -4 17 24 6 2 -20 -20 -20 -20 17 27 5 9 21 27 33 26 29 26 15 -17 -6
-17 -20 19 -19 -19 -13 -20 0 19 29 29 29 18 17 -12 -20 8 -19 -8 -20 -20 12 15 -20 -20 -12 6 14 -20 -18 -20 -20 -20 -15 -10 8 13 17 19 27 27 29 1 -20 -11 -20 -5
-13 -10 18 -2 13 -20 -20 -8 22 32 30 6 -16 30 -20 -13 5 -17 -20 -2 -17 -19 -20 -5 -11 0 7 -8 16 7 10 -11 -15 13 30 23 34 17 7 32 34 17 -0 -16 -11 -2 6
7 -2 5 5 6 -20 -20 -20 20 30 27 23 32 26 10 9 -9 -20 -19 -8 -20 -4 3 -10 -20 2 -9 15 5 -7 -20 -17 -20 6 -8 23 26 31 4 26 27 29 -14 -20 -19 -13 0
14 19 11 -20 1 -1 -20 -15 -2 26 23 31 19 22 14 -19 9 -20 5 -20 -20 -11 -3 -2 -20 -16 5 15 15 14 9 -19 -4 -17 -20 -12 24 19 18 10 9 20 11 -20 -20 -20 -20
14 15 20 -17 -17 11 -20 6 -20 16 13 23 32 23 11 3 -0 -20 4 -20 -19 -13 -12 -18 -19 -20 -20 16 28 22 -20 -20 -20 -20 -20 -20 -10 20 -12 -5 -20 2 16 -14 -20 -20 -20
-20 10 -20 -20 -5 4 7 -0 -20 12 3 12 28 21 10 -17 -20 -18 -20 -9 -20 -10 -20 -20 -20 -20 -8 18 32 17 -20 -20 -20 -20 -20 -20 -14 -20 -20 -10 -20 -20 -16 -20 -20 -20 -20
14 -18 20 -15 6 7 -20 6 -20 7 3 21 30 26 20 8 5 -20 -18 -12 -20 -20 -20 -20 -15 -9 13 21 26 29 -20 -20 -20 -20 -20 -20 -20 -20 -20 -18 -20 -20 -20 -20 -20 -20 -20
6 -20 8 2 -18 -4 -10 7 -20 -10 12 8 14 21 3 -6 -20 -20 -20 -20 -20 -20 -1 -20 -20 11 18 20 20 15 8 -20 -20 -20 -20 -20 -20 -20 -20 -20 -20 -20 -20 -20 -20 -20 -20

GFSGBSN_prec_radar_018.txt.gz
Reflectivity
-20 -5 -20 -20 -20 -20 -20 11 12 -7 0 0 4 -12 9 6 13 14 21 -20 -20 -20 -20 -20 -20 -20 -20 9 4 -20 -20 -20 -20 20 12 -7 -20 -20 -20 -20 -20 -20 -20 -20 -20 -20 -20
-20 -11 -20 -20 -20 -20 -20 -20 -17 -20 -20 5 10 -6 5 20 14 6 23 1 -20 -20 -20 -20 -20 -20 -20 -20 -20 -20 -20 -20 -20 6 -14 -6 -15 -20 -20 -20 -20 -20 -20 -20 -20 -20 -20
-20 -20 -10 -20 -20 -20 -20 3 -20 -20 -20 -2 14 11 6 -0 13 17 27 19 -20 -20 -20 -20 -20 -20 -20 -20 -20 -20 -20 -20 -7 21 21 1 5 -19 -20 -19 -20 -20 -20 -20 -20 -20 -20
-19 -20 -20 -20 -20 -20 -17 -19 -15 -20 -20 -1 -10 5 -20 -8 13 24 -10 29 -20 -20 -20 -20 -20 -20 -20 -20 -20 -20 -20 -20 -18 -20 -2 11 6 -17 -20 -20 -20 -20 -20 -20 -20 -20 -20
11 13 4 -20 -20 -20 -20 -20 -20 -20 -20 -20 -9 9 -20 2 4 17 31 30 16 -20 -4 15 -20 -20 -20 -20 -20 -20 -20 -20 10 -20 -20 -20 -20 -20 -20 -20 -20 -20 -20 -20 -20 -20 -20
11 -13 13 4 -17 17 11 -20 -20 -20 -20 -17 2 -20 7 -18 6 24 32 34 27 10 11 -6 -20 -20 -20 -20 -20 -20 -20 -20 -17 -20 -20 -20 -20 -20 -20 -14 -20 -20 -20 -20 -20 -20 -20
-15 11 -14 13 15 -20 -20 15 16 15 -20 -17 -20 -10 -13 -11 7 22 34 38 35 16 -13 -20 -20 -20 -20 -20 -20 -20 -20 -20 -20 -3 1 -1 0 -20 -20 -20 -20 -20 -20 -20 -20 -20 -20
5 13 15 -12 15 5 -1 16 -20 10 -4 -20 -3 -4 -2 1 6 14 32 44 11 -20 -19 -20 -20 -20 -20 -20 -20 -20 -20 -20 -20 -20 -2 -11 -11 -20 -20 -10 -19 -17 -20 -20 -20 -20 -20
11 9 12 15 16 19 17 15 -8 19 -11 -15 19 -7 21 5 -20 0 33 36 28 11 -20 -20 -20 -20 -20 -20 -20 -20 -20 -20 -20 -13 -20 -20 -20 -20 -20 -20 -10 -19 -20 -20 -20 -20 -20
-17 2 1 12 3 17 -7 17 17 19 -20 14 2 -13 -3 6 -7 -12 19 24 33 18 -20 -20 -3 -19 -20 -20 -20 -20 -20 -20 -20 -20 -20 -13 -20 -20 -20 -20 -20 -20 -20 -20 -20 -6 -9
6 12 4 18 18 -12 17 17 17 -20 13 11 26 25 -6 25 15 -7 2 31 37 36 -11 -20 -0 -13 0 -20 -20 -13 -20 -20 -20 -20 -20 -20 -20 -20 -20 -20 -20 -18 -20 -20 -20 -2 1
-20 6 -2 10 17 18 15 15 18 15 -20 3 18 23 21 16 10 -20 26 34 35 28 -20 1 11 10 12 4 -16 -9 -19 1 -20 -19 -14 -20 -20 -20 -20 -20 -20 -13 -8 7 1 8 9
-20 -20 -1 6 19 18 14 15 -3 12 -20 6 25 31 21 15 5 -6 27 34 33 21 -20 6 -10 13 -5 -6 10 -20 1 8 -8 7 8 -7 -5 -20 -20 -9 -20 8 1 1 8 11 -20
13 19 16 18 16 6 18 -13 -20 -20 10 -20 19 9 -7 23 -15 22 30 39 20 2 -20 -2 1 -5 8 -20 9 6 7 13 7 -9 -20 -16 -20 -9 -20 -20 -20 -20 -3 -16 -17 -20 -20
16 -9 14 17 -20 15 16 -20 3 8 8 16 12 8 29 24 -20 25 31 25 11 -20 -20 -19 8 3 10 -20 -11 -13 3 -20 -20 -20 -20 -16 -20 -20 -20 -20 -20 5 -2 -20 8 2 12
13 10 15 14 15 17 -20 -20 3 13 1 19 19 8 26 7 -4 18 35 31 -7 -20 5 -20 -20 -20 -20 2 -13 -18 -2 -20 -20 -20 -20 -3 -5 -20 -20 -17 -20 -11 -20 -1 15 4 5
9 -0 7 16 18 -15 15 -20 -19 6 7 20 24 23 31 19 5 3 34 29 -11 -3 7 -20 -20 -20 -20 -20 -20 -20 -20 -20 -20 -20 -20 -3 0 -20 -16 -3 -20 0 0 14 6 11 5
13 9 -5 12 13 -18 2 -20 -20 3 7 12 26 36 22 15 29 29 32 2 -20 -17 -20 -20 -20 -20 -20 -20 -20 -20 -20 -20 -20 -20 -20 -19 -7 8 -19 -20 -20 -20 -19 4 19 14 22
11 11 -4 13 1 12 8 -20 -12 -5 15 24 30 30 32 17 15 27 26 -20 -15 -9 -20 -20 -20 -20 -20 -20 -20 -20 -20 -20 -20 -20 -20 -20 -3 -17 -20 -18 -17 -20 -20 2 12 25 19
9 15 -11 13 -8 5 -5 -20 1 -14 22 27 29 32 25 5 -4 -5 -1 -7 -20 -20 -20 -20 -20 -20 -20 -20 -20 -20 -20 -20 -20 -20 -20 -20 -11 -20 -20 -20 12 13 -20 4 28 20 4
12 11 9 -11 -20 0 5 -20 -20 -15 27 25 27 -4 -7 10 8 -19 -1 -20 -14 -20 -20 -20 -20 -20 -20 -20 -9 -20 -20 -20 -20 -20 -20 -15 -9 -20 -20 -20 -20 -20 -20 -11 28 7 17
11 -13 18 3 9 -17 1 -20 -20 -8 -6 9 28 22 10 9 -20 -20 -20 -20 -5 -20 -20 -20 -20 -20 -20 -9 -20 -14 -20 -20 -20 -20 -20 3 -11 5 -20 -20 -20 16 -13 13 1 15 13
11 8 -20 18 -20 -20 -14 -17 -20 -20 5 11 13 27 9 -13 -0 -20 -11 -5 -20 -20 -20 -20 -20 -20 -20 -20 -12 -11 5 -4 -3 -5 -20 2 3 18 6 -20 -20 2 11 5 -7 -15 -15
-9 -0 0 4 1 -20 -17 -20 -19 -20 10 13 15 10 5 7 -0 -5 -20 -20 -20 -20 -10 -20 -20 -20 0 -5 8 -20 -12 6 10 -2 -20 -12 13 20 15 -9 1 5 10 -7 -16 -20 -18
4 7 9 -20 12 0 -9 -7 -6 -20 1 -5 9 2 6 4 -18 -20 -20 -20 -20 -20 -20 -3 -20 -14 -7 17 7 -10 3 -0 -20 -14 8 -19 -1 26 16 8 4 21 19 31 -14 -20 -20
-20 -20 -20 -6 -20 -15 -12 -18 5 -20 -16 16 28 19 18 10 -20 -20 -20 -20 -20 -20 -20 -20 -20 -20 -17 13 -20 -11 5 -20 -20 -20 -20 -17 10 24 11 14 6 -7 -20 -20 -20 -18 -20
-20 -20 -17 -11 10 7 -20 -20 -4 -20 -7 -11 25 20 4 7 -5 -20 -20 -20 -20 -20 -3 -13 -20 -15 3 17 12 4 -12 -20 -20 -20 -20 -14 7 -0 5 -0 -3 -20 2 -7 -15 18 -20
-20 -11 -20 -19 -18 -18 -13 -20 -20 -20 -20 -18 11 15 11 -11 -20 -20 -20 -20 -20 -0 -14 -20 -4 -2 9 7 5 7 13 -20 -20 -20 -20 -20 -20 -13 -20 -20 -20 -20 -20 -20 -20 -18 -20
-15 -17 -20 -20 -20 -20 -20 -20 -20 -20 -20 -18 7 2 4 5 -17 -20 -20 -20 -20 -20 -19 -20 -10 -12 -9 15 10 7 9 -12 -19 -2 -20 -20 -20 -20 -20 -20 -20 -20 -20 -20 -20 -20 -20

GFSGBSN_prec_radar_021.txt.gz
Reflectivity
-20 -20 -20 -20 -20 -20 -11 -20 -20 -20 -20 -20 -20 9 8 -18 -8 11 11 18 15 -20 -20 -20 -20 -20 -20 15 14 -20 -20 -20 -9 -20 2 -20 -20 -20 -20 -20 -20 -20 -20 -20 -20 -20 -20
-20 -20 -20 -20 -20 -20 -20 -20 -20 -20 -14 -20 -20 -19 11 -18 -12 6 8 19 23 -20 -20 -20 -20 -20 -20 10 -12 -20 -20 -20 -20 23 0 -18 -10 -20 -20 -20 -20 -20 -20 -20 -20 -20 -20
-20 -20 -4 -20 -20 -14 -20 -20 -20 -20 -20 -20 -20 -20 -8 4 5 1 -11 15 27 -15 -20 -6 -20 -20 -20 -20 -20 -20 -20 -20 -20 10 25 -20 -20 -20 -18 -20 -20 -20 -20 -20 -20 -20 -20
5 11 8 -4 -20 -15 -14 8 -20 -20 -20 -20 -20 -20 -20 4 -15 3 8 7 27 2 -15 -1 -20 -20 -20 -20 -20 -20 -20 -20 -20 12 26 -14 -20 11 3 -20 -20 -20 -20 -20 -20 -20 -20
-1 -4 13 9 1 10 5 14 5 -20 -20 -20 -20 -20 -20 -20 5 12 -12 14 4 33 18 -18 -20 -20 -20 -20 -20 -20 -20 -20 -15 -20 -20 -14 3 -10 -16 -20 -20 -20 -20 -20 -20 -20 -20
13 4 8 15 15 12 12 21 -4 -18 17 3 -20 -12 17 -16 -15 3 3 20 25 32 29 12 -20 -20 -20 -20 -20 -20 -20 -20 -12 -20 -9 -15 -16 1 -20 -20 -20 -20 -20 -20 -20 -20 -20
17 -20 13 13 14 5 21 21 -20 -18 10 18 9 -19 24 27 -19 14 10 14 30 38 27 -20 -20 -20 -20 -20 -20 -20 -20 -20 -19 -20 -20 -20 -1 -20 -20 -20 -20 -20 -20 -20 -20 -20 -20
-15 -3 -3 10 12 17 0 -12 18 -7 19 21 3 -19 -12 -20 -18 8 9 27 39 31 18 -16 -11 -20 -20 -20 -20 -20 -20 -19 -15 -6 -14 -18 -3 -20 -20 -20 -20 -20 -20 -20 -20 -20 -20
2 9 7 12 -20 15 13 18 18 -2 -12 18 -20 22 -14 -19 10 -20 -11 22 37 38 28 4 -20 -20 -20 -20 -20 -20 -20 -20 -12 -17 -20 -9 -20 -20 -20 -20 -20 -20 -20 -20 -20 -20 -20
-7 -8 -20 -20 6 13 16 11 16 10 -20 20 11 23 -4 -18 -15 16 9 18 37 33 24 8 0 -20 -20 -20 -20 -20 -20 -20 -20 -16 -20 -11 -20 -20 -20 -20 -20 -20 -20 -20 -20 -20 -20
10 -10 15 16 12 16 15 14 18 19 18 6 -20 23 28 27 13 -20 25 18 34 35 22 -20 5 -12 -20 -20 -20 -8 -20 -20 -13 -20 -20 -3 -20 -20 -20 -20 -20 -20 -20 -20 -20 -19 -16
-20 16 15 14 12 14 15 12 18 15 -20 12 9 24 21 20 13 -17 20 32 38 33 21 6 4 3 3 -20 -18 5 -18 -14 -20 -20 -16 -20 -20 -20 -20 -20 -20 -20 -19 -20 -11 0 -0
9 17 15 0 7 15 1 -19 -20 -14 -20 14 -20 9 22 23 -3 -13 23 40 30 25 -2 3 3 4 0 -8 -12 -10 -2 9 -20 -5 -8 -20 -20 -20 -20 -20 -17 -12 -19 -20 2 5 -20
-12 11 13 8 -20 18 -10 18 10 11 -20 -20 10 -20 -5 3 9 18 30 25 11 10 -17 -6 12 9 6 -15 -3 -14 -18 6 -7 -20 -20 -18 -4 -20 -20 -20 -20 -18 -1 -19 -20 -20 -20
11 -10 14 14 -11 17 15 -13 -20 -18 9 3 5 -19 26 22 -20 13 20 12 31 -20 -17 -18 7 10 9 4 -7 -1 -2 -17 -20 -20 -20 -20 -20 -20 -20 -20 -20 -6 -18 -19 -1 -20 -13
13 15 15 17 16 -17 9 10 -18 -2 15 9 15 -6 16 25 -13 10 17 34 11 -20 -3 -19 -14 -15 -4 -1 -6 -12 -10 -20 -20 -20 -20 -11 -12 -20 -20 -13 -14 -16 -11 -8 -8 -2 -19
11 17 13 17 6 -16 13 -13 -20 2 6 1 12 31 18 2 -7 14 7 35 -6 -20 4 -8 -20 -20 -20 -16 -20 -20 -20 -16 -20 -20 -20 -20 -16 -20 -9 -12 -20 -13 2 -1 -14 8 -3
14 18 7 17 -20 -3 16 -16 -20 -2 13 17 20 25 11 -13 0 2 32 26 -3 -20 -20 -16 -14 -20 -20 -19 -20 -20 -20 -20 -20 -20 -20 -16 2 -3 -19 -20 -20 -20 -19 -19 7 -20 11
13 6 10 -2 -20 13 13 -18 -4 -3 19 17 20 18 10 27 9 8 29 13 7 10 1 -20 -20 -20 -20 -20 -18 -20 -20 -20 -20 -20 -20 -10 2 -16 -16 -16 -20 -20 -20 -16 4 21 18
-2 -2 -3 -1 -5 -18 10 -18 -7 -7 29 -9 14 26 4 -1 4 12 28 13 8 6 -11 -20 -20 -20 -20 -20 -20 -20 -20 -20 -20 -20 -20 -17 -13 -20 -20 -20 -10 20 -16 0 17 19 -9
4 -15 10 4 13 -20 11 -20 -5 -20 23 -18 -3 9 -1 -10 -10 -13 20 -2 16 -10 -20 -20 -20 -20 -20 -20 -20 -20 -20 -20 -20 -20 -20 -19 -0 -3 -20 -20 -20 -20 -20 -13 27 18 13
-4 6 11 1 -0 -20 6 -16 -19 -20 -16 5 6 2 4 -20 -3 3 3 27 -1 -20 -20 -20 -20 -20 -20 -5 1 0 -20 -20 -13 -20 -20 -12 8 10 -20 -20 -20 -13 2 24 7 6 21
1 2 -20 -20 6 11 7 1 2 -20 -0 -1 6 3 12 -19 -5 -9 -1 -15 -20 -20 -20 -20 -20 -11 -20 -3 -20 -20 -20 -20 -20 -20 -14 1 1 -9 -9 -20 -20 -13 2 -0 -17 -20 -8
-13 -19 -20 -20 -20 -11 6 2 7 -20 5 3 5 2 -0 5 1 -20 -20 -20 -20 -20 2 -20 -20 -9 -7 -20 -20 -20 -20 -14 -20 -11 -6 1 16 25 -1 -17 -14 -13 -11 -4 8 -13 -20
-4 -20 -20 -5 -0 0 4 6 3 -20 -4 1 -2 8 3 4 -5 -20 -20 -20 -20 -20 -19 -20 -13 -18 -20 -20 -11 -3 9 -18 -20 -20 10 21 11 24 -0 6 -20 -8 -20 -20 -11 -20 -18
4 -20 -20 -20 -20 -20 0 1 -20 -20 -20 -11 6 -2 5 -2 -20 -20 -20 -20 -5 5 -20 -20 -20 -20 -20 10 7 -4 -3 -15 -8 -20 -20 3 7 13 4 7 -2 -11 -20 -20 -17 2 -19
5 -20 -20 -20 -20 -20 -20 -20 -20 -20 -20 -2 -5 -3 -4 -1 -15 -20 -20 -20 -20 -20 2 -7 -15 -15 3 -1 16 -6 -2 -10 -10 2 -20 -16 1 0 -0 -5 -20 -20 -20 -20 -18 -20 -13
4 -0 -20 -20 -20 -20 -20 -20 -20 -20 -20 -20 -6 1 -11 -10 -19 -20 -20 -20 -20 -4 12 -15 -13 -7 -1 6 -12 -18 3 10 -20 -17 -20 -20 -20 -20 -20 -2 -20 -20 -20 -20 -20 -20 -20
-0 -1 -20 -20 -20 -20 -20 -20 -20 -20 -20 -20 -0 -18 5 4 -20 -20 -20 -20 -19 -19 8 -20 12 -20 6 -16 -3 8 13 -17 2 8 -20 -20 -19 -4 -20 -20 -20 -20 -20 -20 -20 -20 -20

GFSGBSN_prec_radar_024.txt.gz
Reflectivity
-20 -20 -20 6 -20 -10 -20 -15 -20 -5 -20 -20 -20 -20 -20 -20 -11 12 10 11 5 25 18 -20 -20 -20 -20 -4 2 -18 -19 -20 22 13 -20 -20 -20 -20 -20 -20 -20 -20 -20 -20 -20 -20 -20
-11 -3 7 12 10 -20 -20 6 7 -20 -20 -20 -8 -10 -20 -20 -5 7 7 11 -3 24 34 -20 -20 -20 -20 -3 -13 -20 -20 -20 -20 21 20 -20 -20 -20 -20 -20 -20 -20 -20 -20 -20 -20 -20
9 3 10 13 10 9 4 15 15 -8 3 -20 -18 5 -10 5 -20 -9 -12 6 5 10 20 13 -20 -20 -20 -20 -20 -20 -20 -20 -20 18 -17 -20 -20 -20 -20 -20 -20 -20 -20 -20 -20 -20 -20
14 14 11 16 16 14 14 2 17 20 11 -20 -20 -20 1 6 -20 -20 -20 4 6 17 27 31 -18 -19 -17 -20 -20 -20 -20 -20 -20 11 14 29 -7 -20 -20 -20 -20 -20 -20 -20 -20 -20 -20
1 14 -6 -3 -18 18 15 15 15 3 -18 21 15 -20 -20 -6 4 -12 -20 -7 -11 6 34 -6 2 -2 -18 -20 -20 -20 -20 -20 -20 -20 28 23 -11 -6 0 -8 -13 -20 -20 -20 -20 -20 -20
16 -6 9 5 18 15 18 15 16 18 -1 18 19 17 -0 -19 10 -1 14 -20 12 2 30 35 15 8 -20 -20 -20 -20 -20 -20 -20 -20 20 22 13 -16 -20 3 -18 -20 -16 -20 -20 -20 -20
-20 6 6 10 -20 16 14 15 16 17 17 18 -10 4 12 19 -20 -20 -20 2 0 22 29 30 15 -20 -20 -20 -20 -20 -20 -20 -20 4 -4 8 -6 -14 -20 -20 -20 -20 -20 -20 -20 -20 -20
10 7 12 11 -18 19 16 18 19 15 6 17 -19 -20 -0 24 -20 5 -16 21 14 21 31 32 8 -7 -20 -20 -20 -20 -20 -12 -20 -19 -0 -20 -20 -20 -20 -20 -20 -20 -20 -20 -20 -20 -20
9 13 18 16 17 15 15 15 15 1 -12 -9 -20 4 18 17 14 -20 -20 -13 31 22 34 34 -6 -9 -20 -20 -20 -20 -20 -12 -15 -20 -16 -20 -20 -20 -20 -20 -20 -20 -20 -20 -20 -20 -20
12 13 12 9 -16 15 5 13 17 -12 -6 -16 6 18 30 34 25 5 -20 -2 28 36 34 33 27 8 -20 -20 -14 -20 -20 -20 -20 12 -7 1 -20 -20 -20 -20 -20 -20 -20 -20 -20 -20 -20
14 10 -4 -9 -20 -11 15 14 2 -20 -20 -3 -14 18 20 17 25 10 8 6 34 37 6 29 24 -1 -20 -20 -20 -20 -20 -20 -20 -20 0 -15 -20 -20 -20 -20 -20 -20 -20 -20 -20 -20 -20
-5 9 -1 14 -19 9 15 13 -3 -17 -12 -18 -15 -20 -10 15 -0 -5 3 25 34 23 25 30 20 -14 -8 8 -18 -20 -7 -20 -16 -20 0 -20 -20 -20 -20 -20 -20 -20 -20 -20 -20 -16 -20
-16 10 14 12 1 14 13 6 5 -20 -20 6 4 -20 20 24 12 -10 19 27 26 21 30 6 1 -6 -1 5 5 -5 -11 2 -20 -20 -5 -20 -20 -20 -20 -20 -20 -20 -20 -18 -18 -19 -20
-1 12 15 12 13 -11 5 2 -20 -20 -18 -20 -19 -5 7 24 21 -5 12 -6 9 23 20 -6 5 -9 -20 -20 5 -0 10 -6 -2 -20 -3 -19 -20 -20 -20 -20 -20 -20 -20 -20 -20 -20 -20
13 11 16 13 16 -9 -1 7 -2 -20 -10 13 3 -8 28 22 12 -15 13 -8 25 2 -20 4 11 -2 -0 -18 -20 5 4 -2 -20 -20 -20 -20 -19 -20 -20 -20 -20 -4 -20 -20 -18 -20 -20
-2 1 11 4 -6 -8 -7 8 -20 -4 16 17 19 4 26 24 -19 -3 1 18 37 6 -20 -20 -20 -5 -9 -2 1 4 -2 -18 -6 -20 -20 -20 -14 -20 -20 -20 -20 -20 -20 -20 1 -20 -20
10 16 8 -1 -12 -20 -20 9 -20 8 16 21 2 20 -5 19 9 13 8 37 31 -0 -16 -12 -20 -16 -16 -1 -7 -20 -20 -20 -20 -20 -20 -20 -20 -20 -18 -20 -20 -20 -3 -3 -11 -20 -20
9 17 10 -20 17 -20 -20 5 4 22 20 18 -19 15 -19 13 5 1 28 36 25 10 -15 -20 -20 -20 -20 -20 -20 -20 -20 -20 -20 -20 -20 -20 -20 -5 -20 -20 -20 -20 -20 -20 -5 -20 -20
4 12 9 1 -20 -20 -11 -13 -6 17 18 -6 -19 21 31 4 4 31 27 14 7 18 3 -20 -20 -20 -20 -20 -20 -17 -20 -20 -20 -20 -17 -19 -11 -20 -20 -20 -20 -20 -20 -20 -20 -13 -16
8 6 8 -20 15 -13 -20 -17 -20 -1 -3 -20 -12 -5 -16 1 -8 16 32 19 25 21 10 -20 -20 -20 -20 -20 -20 -20 -20 -20 -20 -20 -20 -20 -20 -20 -20 -20 -20 -20 -20 -20 -1 15 -16
-3 5 -0 -4 14 2 -20 -20 -20 -20 -20 -20 -20 -4 -12 7 18 11 23 18 10 -3 -12 -20 -20 -20 -20 -19 -8 -20 -20 -20 -20 -20 -20 -20 -12 -20 -20 -20 -20 -20 -20 -20 4 -3 13
2 -20 -20 -20 -20 -20 -20 -20 -20 -20 -20 -20 -17 -20 -20 -20 -20 -20 -20 -20 -5 -20 -20 -20 -20 -20 -20 -4 -6 -20 -20 -20 -20 -20 -20 -20 -20 -15 -20 -20 -20 -20 -20 -20 -20 -9 1
-19 -20 -20 2 9 7 -17 -6 -20 -18 -3 -3 -17 -20 -10 -20 -20 -17 -7 -20 -20 -20 -20 -20 -20 -20 -20 -20 -20 -20 -20 -20 -20 -20 -20 -19 -13 -8 -20 -20 -20 -17 -20 -15 -19 -7 -4
1 -20 -20 -20 -20 -20 5 -18 -20 -20 14 -1 22 15 -6 2 -20 -20 -20 -20 -20 -20 -20 -20 -20 -11 -19 -20 -20 -20 -20 -20 -20 -20 -20 -16 2 22 -7 -20 -20 3 -20 -18 -20 -20 -4
4 -0 -11 -20 -20 -20 -20 -20 -20 -20 -17 2 2 1 -4 -9 -20 -20 -20 -20 -20 -20 -20 -20 -20 -20 -19 -20 -20 -6 2 5 -15 -20 -20 0 19 21 1 -19 -20 -20 -20 -5 -16 -20 -20
-2 7 -9 -20 -20 -20 -20 -20 -20 -20 -20 -20 0 -10 -2 -5 -18 -20 -20 -20 -20 -20 -20 -20 -20 -20 -20 -20 -19 -20 -20 -3 -19 -20 -20 17 6 13 -9 6 -20 -20 -20 -20 -20 -20 -20
12 -3 3 -10 -0 -20 -20 -20 -20 -20 -20 -20 4 10 1 -16 -15 -20 -16 -20 -20 -20 -2 -8 -7 -16 -20 0 -13 -11 -20 -20 -16 5 -20 -16 11 4 5 2 -20 -20 -20 -20 -20 -20 -20
16 -20 11 1 5 3 -8 -20 -20 -20 -20 -20 -20 11 8 -2 1 -20 -20 -20 -20 -20 -11 -20 -20 -20 -20 -17 -15 -20 -20 -20 -20 -16 -9 -20 -16 -14 2 -1 -20 -20 -20 -20 -20 -20 -20
14 -4 -1 -9 -10 6 6 -18 -0 -20 -20 -20 -20 -8 -4 16 -20 -20 -20 -20 -20 -20 4 -20 -0 -20 -20 -8 -20 -5 -17 -20 -20 -3 -20 -20 -19 1 -20 -20 -20 -20 -20 -20 -20 -20 -20

GFSGBSN_prec_radar_027.txt.gz
Reflectivity
10 12 12 -20 11 -1 3 4 18 16 11 17 18 -4 14 -12 18 12 12 15 13 14 5 29 -9 -5 -20 7 -17 -20 -20 -17 23 -9 -20 -20 -20 -20 -20 -20 -20 -20 -20 -20 -20 -20 -20
13 16 9 7 15 9 0 -9 9 19 15 20 8 -20 2 9 -18 9 -20 -20 -2 16 11 28 5 15 -20 -19 -20 -20 -20 -18 24 1 -20 -20 -20 -20 -20 -20 -20 -20 -20 -20 -20 -20 -20
-0 12 10 3 11 12 -15 5 18 15 18 -17 17 4 -19 1 9 -20 -20 -20 -20 10 3 31 25 4 -20 -20 -20 -20 -20 -20 -20 20 -20 3 -19 -20 -20 -20 -20 -20 -20 -20 -20 -20 -20
-6 17 4 17 6 12 8 10 5 16 13 20 16 -15 -14 2 8 -17 -16 10 -0 -19 21 28 6 19 -16 -20 -20 -17 -20 -20 -20 -20 -20 -20 -20 -20 -20 -20 -20 -20 -20 -20 -20 -20 -20
14 -6 5 3 3 18 -5 6 -5 7 13 -4 19 6 -10 17 -14 -20 -15 -20 -20 -20 17 34 25 9 -20 -20 -20 -16 -20 -20 -20 -20 30 7 17 -1 -20 -20 -14 -20 -20 -20 -20 -20 -20
-5 14 16 12 16 16 17 13 13 10 1 19 -1 8 6 15 -20 -6 19 -20 -20 -20 11 33 12 20 -20 -20 -20 -20 -20 -20 -20 15 10 13 29 1 20 11 -13 -20 -20 -20 -20 -20 -20
14 18 -3 13 16 -1 -20 15 -20 2 18 20 22 -12 6 18 -20 12 -20 -20 -20 -20 38 25 29 -16 -20 -20 -20 -20 -20 -20 -20 4 11 34 29 31 -2 -19 -20 -17 -20 -20 -20 -20 -20
9 16 12 4 15 -5 -12 -1 -20 17 17 7 -13 -2 9 -16 -12 13 6 1 -15 6 33 34 31 21 -20 -20 -20 -20 -20 -8 -3 -20 4 -6 1 20 -20 -20 -20 -20 -20 -20 -20 -20 -20
11 18 10 4 4 -10 4 6 -3 9 -7 -6 -7 -7 15 0 9 11 -20 -20 -20 14 33 22 26 22 -20 -20 -20 -20 -20 -20 -20 -20 -20 -20 -20 -20 -20 -20 -20 -20 -20 -20 -20 -20 -20
10 8 12 15 14 -5 17 -16 8 -20 -20 7 -5 13 21 22 15 -7 -20 -20 -15 38 27 21 34 27 -20 -20 -20 -20 -20 -20 -11 11 -20 -20 -20 -20 -20 -20 -20 -20 -20 -20 -20 -20 -20
10 -15 16 8 16 1 -1 10 14 16 -20 1 10 -20 18 25 26 -3 -20 -20 11 23 18 14 27 -1 -12 -20 -20 -2 -20 -20 -11 -20 -20 -20 -20 -20 -20 -20 -20 -20 -20 -20 -20 -20 -20
-16 -1 13 16 16 14 -20 10 -16 -1 -20 -20 -10 -11 16 18 2 -10 -1 28 14 11 26 38 26 11 13 -20 -16 -14 11 -20 -20 4 -9 -20 -20 -20 -20 -20 -20 -20 -20 -20 -20 -20 -20
5 15 9 7 -1 -5 5 12 13 -20 -20 -10 6 5 -7 24 11 -20 10 18 9 24 31 33 11 4 -17 10 -4 -5 4 -20 -20 -0 -10 -20 -20 -20 -20 -20 -20 -20 -20 -20 -20 -20 -20
-20 16 9 -1 -19 17 -2 -20 11 -20 -9 4 -13 4 -20 14 -19 -20 10 -4 7 29 24 7 -1 2 5 2 -5 1 -20 -20 -20 -20 -20 -20 -20 -20 -20 -20 -20 -20 -20 -20 -20 -20 -20
3 6 -8 8 -18 15 -20 13 3 -6 -8 -9 6 -20 -18 21 -20 -13 6 18 25 19 6 19 15 1 -11 7 -11 -4 -18 -20 -20 -20 -20 -20 -20 -20 -20 -20 -20 -20 -20 -20 -20 -20 -20
-13 10 -8 6 6 -13 -8 12 -15 14 14 10 -20 -18 -1 3 -5 19 20 23 24 25 -15 -17 -6 -9 -4 -8 -8 -7 5 -20 -20 -20 -20 -20 -16 -20 -20 -20 -20 -20 -20 -20 -20 -20 -20
7 -10 9 4 8 -20 -2 7 8 11 20 -20 -20 -11 -12 -15 -6 21 20 22 23 7 -18 -4 -20 -15 -20 10 -6 -18 -20 -20 -20 -20 -20 -20 -20 -20 -20 -20 -20 -20 -2 -20 -20 -20 -20
6 -10 7 -20 13 -19 3 1 -5 -1 5 -20 -20 -15 -6 -2 7 20 23 34 35 3 10 0 -20 -20 -20 -17 -20 -20 -20 -20 -20 -20 -20 -20 -20 -20 -20 -20 -20 -20 -20 -20 -20 -20 -20
2 -20 -20 -20 -1 -20 -11 4 -20 5 -20 -20 -18 -20 -2 -20 -17 26 30 38 18 15 3 -20 -18 -20 -20 -20 -20 -20 -20 -20 -20 -3 -20 -20 -20 -20 -20 -20 -20 -20 -20 -20 -20 -20 -20
5 -20 -20 -20 -20 -20 -17 8 -20 -20 -20 -20 -20 -20 -20 -19 22 2 -19 -11 2 -20 -20 -20 -20 -20 -20 -20 -20 -20 -20 -20 -20 -20 -12 -20 -20 -20 -20 -20 -20 -20 -20 -20 -18 -8 -20
2 -20 -20 -20 2 6 -20 -12 -20 -20 -20 -20 -20 -20 -19 -20 -19 -16 -1 -7 -18 -20 -20 -20 -10 -20 -20 -20 -20 -20 -20 -20 -20 -20 -20 -20 -20 -20 -20 -20 -20 -20 -20 -20 -20 -20 12
4 -20 -20 -20 -20 -20 -16 -20 -20 -20 -20 -20 -20 -20 -20 -20 -20 -20 -20 -20 -20 -20 -20 -20 -20 -7 -3 -1 -20 -20 -20 -20 -20 -20 -20 -20 -20 -20 -20 -20 -20 -20 -20 -20 -20 -20 -13
7 -16 -20 -19 -20 -20 -20 -20 -20 -20 -20 -20 -20 -20 -6 -20 -20 -20 -20 -20 -20 -20 -20 -20 -20 -20 -17 -13 -14 -20 -20 -20 -20 -20 -20 -20 -20 -20 -20 -20 -20 -20 -20 -20 -20 -9 -14
7 13 -20 -1 -20 -20 -20 -20 -20 -20 -20 -20 1 6 -3 -20 -20 -20 -20 -20 -20 -20 -20 -20 -20 -20 -20 -20 -20 -20 -20 -20 -20 -20 -20 -20 -20 -12 -20 -20 -20 -20 -20 -20 -20 -19 -6
-17 9 9 -20 0 -20 -20 -20 -20 -20 -20 -20 -5 -20 -1 -20 -20 -20 -20 -20 -20 -20 -20 -20 -20 -20 -20 -20 -20 -19 2 -3 -20 -20 -20 -20 -17 -9 -1 -20 -20 -20 -20 -20 -20 -20 -20
-20 15 -3 11 2 -2 1 -20 -20 -20 -20 -20 6 -20 -20 -19 -20 -9 -20 -20 -20 -20 -20 -20 -20 -20 -20 -20 -20 -20 -20 -14 -18 -5 8 -10 15 20 12 -20 -20 -20 -20 -20 -20 -20 -20
-20 15 -14 -16 11 8 -9 -10 -20 -20 -20 -20 -19 -15 -20 -13 -20 -20 -11 -20 -9 -20 -20 -20 -20 -20 -20 -20 -20 -20 -20 -20 -20 -20 -10 8 20 5 -3 -13 -20 -20 -20 -20 -20 -20 -20
-20 11 -12 -20 -20 9 16 10 -8 -3 -20 -20 -20 -18 -13 -17 -20 -20 -20 -20 -20 -20 -20 -20 -16 -20 -20 -20 -17 -20 -20 -20 -20 -20 -20 -20 -20 -12 -9 -15 -20 -20 -20 -20 -20 -20 -20
-20 9 -11 -20 -20 -7 15 10 15 9 -2 -20 -20 -19 3 -12 -20 -20 -20 -20 -20 -20 -20 -20 -20 -20 -20 -20 -20 -20 -20 -20 -20 -20 -20 -3 -20 -20 -20 -20 -20 -20 -20 -20 -20 -20 -20

GFSGBSN_prec_radar_030.txt.gz
Reflectivity
-19 -20 -9 -3 -20 3 8 14 11 5 15 9 22 25 19 17 -12 11 -8 -20 -20 -20 -20 -20 19 18 -3 11 -12 -20 -1 -20 6 9 -20 -20 -20 -20 -20 -20 -20 -20 -20 -20 -20 -20 -20
11 9 2 0 6 -2 12 11 -4 -1 -3 6 -9 -6 12 -18 14 -14 -6 -20 -20 -20 -20 -19 14 36 -20 -20 -20 -20 -20 -20 -11 -13 -20 -20 -20 -20 -20 -20 -20 -20 -20 -20 -20 -20 -20
16 -17 -2 13 1 16 15 14 16 -5 -2 17 20 -8 -11 -1 18 19 14 -20 -20 -20 -20 -19 13 38 -17 5 -14 -20 21 22 16 -19 -20 -20 -20 -20 -20 -20 -20 -20 -20 -20 -20 -20 -20
-1 -17 -10 8 15 11 -9 -16 -20 8 9 4 16 22 16 -7 17 17 -20 -5 -16 -20 -20 4 8 32 2 -1 -3 -7 -20 -20 -20 -14 6 -20 -20 -20 -20 -20 -20 -20 -20 -20 -20 -20 -20
-14 -14 16 4 8 -3 5 -20 -2 5 -20 14 6 20 -10 2 3 8 -20 -20 -20 -20 -20 8 27 30 12 -1 2 0 -20 -20 -20 -1 28 -10 -11 -4 -20 -20 -20 -20 -20 -20 -20 -20 -20
14 -14 14 13 17 -10 -10 -19 17 8 3 17 -10 5 -6 -20 -6 18 -18 -20 -20 -20 -20 -3 19 31 -18 -20 -0 2 -14 -20 -15 24 24 19 21 14 -20 -17 -16 -20 -20 -20 -20 -20 -20
9 7 15 13 2 -6 -2 16 -20 10 -20 -20 -16 9 17 -20 -20 8 -20 -20 -20 -4 10 23 36 21 -20 -20 -13 -7 -20 -18 17 25 19 16 29 7 -20 -20 -20 -20 -20 -20 -20 -20 -20
8 10 11 9 18 -6 -5 -12 18 -11 14 -17 -20 8 17 17 21 9 -16 -7 -18 -4 -20 31 24 24 -20 -20 -20 -20 -20 4 -4 -3 2 9 18 29 31 20 9 -16 -20 -20 -20 -20 -20
7 12 13 14 18 18 4 4 11 16 14 -20 -20 -18 3 17 25 19 -4 -12 -20 -20 -9 21 35 15 -20 -20 -20 -20 -8 -3 -11 -20 -2 27 0 16 7 -14 -17 -20 -20 -20 -20 -20 -20
-20 13 11 7 5 17 7 -9 2 14 5 -20 3 -1 -11 19 6 4 -20 -20 -20 -20 7 16 23 -1 7 -20 -20 -20 -20 -4 -20 -20 -18 -0 14 6 -5 -20 -20 -20 -20 -20 -20 -20 -20
-3 11 12 14 -2 -13 17 16 -16 -6 6 -20 -20 11 19 26 20 25 -20 -10 14 6 24 21 34 14 14 -20 -20 -7 -20 -20 -20 -20 -20 -20 -20 -20 -20 -20 -20 -20 -20 -20 -20 -20 -20
-14 15 2 -12 0 13 8 -20 -19 5 -20 2 0 -4 24 4 -13 -20 -10 17 -10 20 24 35 34 24 21 -20 -20 -16 -5 -20 -17 1 -20 -20 -20 -20 -20 -20 -20 -20 -20 -20 -20 -20 -20
-2 6 -4 18 10 12 -15 9 6 -20 15 12 15 24 -20 17 14 -8 -7 -20 7 3 24 33 27 -5 -6 -1 -13 -3 -3 -20 -15 2 8 -19 -20 -20 -20 -20 -20 -20 -20 -20 -20 -20 -20
-1 5 -20 12 -16 4 -18 8 -10 17 3 -1 -13 -20 -17 -20 -20 -20 -20 6 11 16 18 20 5 8 3 8 -6 6 -15 8 -20 -20 -17 -20 -20 -20 -20 -20 -20 -20 -20 -20 -20 -20 -20
-20 -16 -8 6 -20 5 -5 4 9 -6 13 -20 -20 -20 -20 -19 -16 5 17 4 17 32 29 16 8 -16 -9 -20 -2 5 2 -0 -20 -20 -20 -20 -20 -20 -20 -20 -20 -20 -20 -20 -20 -20 -20
-3 -13 -20 -20 12 6 3 -3 -11 10 4 -20 -19 11 12 9 -3 -4 10 25 23 8 -18 -20 -10 -17 -14 -19 -2 -1 2 -8 -19 -20 -20 -20 -20 -20 -20 -20 -20 -20 -20 -20 -20 -20 -20
-20 -20 -20 -20 -17 -20 -16 -1 -7 9 -2 -20 -5 -18 -14 -10 10 15 12 7 27 15 -16 -18 -20 -20 -12 -12 -20 -2 -15 -20 -20 -20 -20 -20 -20 -20 -20 -20 -20 -20 -20 -20 -20 -20 -20
-20 -20 -20 -20 -20 6 6 -16 -19 5 0 -20 -20 -20 -20 -19 5 28 21 18 18 -20 -20 -20 -20 -20 -20 -19 -20 -20 -20 -20 -20 -20 -20 -20 -20 -20 -20 -20 -20 -20 -20 -20 -20 -20 -20
-20 -20 -20 -20 -20 2 13 -19 -20 15 1 -20 -20 -20 -20 -20 -20 -14 11 13 -2 9 -20 -20 -20 -20 -20 -20 -17 -20 -20 -20 -20 -20 -20 -20 -20 -20 -20 -20 -20 -20 -20 -20 -20 -20 -20
-0 -20 -20 -20 -20 -19 -17 -20 -20 -20 -20 -20 -20 -20 -20 -20 -20 -20 -20 -20 -20 -20 -20 -20 -20 -20 -20 -20 -20 -20 -20 -20 -20 -20 -20 -20 -20 -20 -20 -20 -20 -20 -20 -20 -20 -13 -20
-16 -20 -20 -20 -20 -20 -20 -20 -20 -20 -20 -20 -20 -20 -12 -20 -20 -20 -20 -20 -20 -20 -20 -20 -20 -20 -20 -1 -20 -14 -20 -20 -20 -16 -18 -20 -20 -20 -20 -20 -20 -20 -20 -20 -20 -20 -20
-11 -16 -20 -20 -20 -20 -20 -20 -20 -20 -20 -20 -20 -20 -20 -20 -20 -20 -20 -20 -20 -20 -20 -20 -20 -20 -20 -20 -20 -20 -20 -20 -20 -20 -20 -20 -20 -20 -20 -20 -20 -20 -20 -20 -20 -20 -20
-20 5 -20 -20 -20 -20 -20 -20 -20 -20 -20 -20 -20 -20 9 -20 -20 -20 -20 -20 -20 -20 -20 -20 -20 -20 -8 -20 -20 -20 -20 -20 -20 -20 -20 -20 -20 -20 -20 -20 -20 -20 -20 -20 -20 -20 -20
-5 15 -3 -8 0 -20 -20 -20 -20 -20 -20 -15 -0 2 -18 -20 -20 -20 -20 -20 -20 -20 -20 -20 -20 -20 -20 -20 -20 -20 -20 -20 -20 -20 -20 -20 -20 -12 -20 -20 -20 -20 -20 -20 -20 -20 -20
-4 10 2 -20 -20 1 -12 -20 -20 -20 -20 -20 -17 -5 12 -19 -20 -20 -20 -20 -20 -20 -20 -20 -20 -20 -20 -20 -20 -2 4 2 -18 -20 -20 -20 -20 -20 -20 -20 -20 -20 -20 -20 -20 -20 -20
-4 7 10 -20 -20 7 3 2 -20 -20 -20 -20 2 -20 -20 7 -20 -20 -20 -20 -20 -20 -20 -20 -20 -20 -20 -20 -20 -20 -20 -20 -10 -10 4 -3 -19 26 9 -20 -20 -20 -20 -20 -20 -20 -20
9 12 12 -7 -20 4 -20 -3 -11 -1 -20 -20 -16 -20 -7 3 -20 -20 -20 -20 -20 -20 -20 -20 -20 -20 -20 -20 -20 -20 -20 -20 -12 -20 2 18 14 -5 -7 -20 -20 -20 -20 -20 -20 -20 -20
14 13 0 4 -20 -3 7 -1 7 -12 -20 -20 -20 5 -20 -3 -20 -20 -20 -20 -20 -20 -20 -20 -20 -20 -20 -20 -20 -20 -20 -20 -20 -20 -20 -19 -18 -8 -12 -20 -20 -20 -20 -20 -20 -20 -20
16 16 5 14 4 -17 12 11 11 13 -12 -20 -20 -20 -20 10 -20 -20 -20 -20 -20 -20 -20 -20 -20 -20 -20 -20 -20 -20 -20 -20 -20 -20 -20 -4 -20 -20 -20 -20 -20 -20 -20 -20 -20 -20 -20

GFSGBSN_prec_radar_033.txt.gz
Reflectivity
-7 14 12 13 11 4 16 17 17 -7 9 -8 13 -2 -20 -20 -0 3 -18 -13 8 -20 -20 -20 -20 -4 39 3 -17 -2 -19 -20 -9 -12 -20 -20 -20 -20 -20 -20 -20 -20 -20 -20 -20 -20 -20
3 8 14 18 15 12 -1 -9 15 -13 -20 8 8 17 21 -20 23 14 -20 8 -11 -20 -20 -20 -10 11 31 10 -10 -2 0 -20 4 9 9 -5 -20 -20 -20 -20 -20 -20 -20 -20 -20 -20 -20
8 -3 15 17 11 16 -10 8 17 -20 9 6 -15 7 16 17 0 1 -20 -17 -20 -12 3 3 11 -0 29 15 -20 -4 1 26 -20 -20 7 -20 -20 -20 -20 -20 -20 -20 -20 -20 -20 -20 -20
6 10 12 17 15 16 -20 19 -13 11 16 -15 19 15 -10 17 -14 19 -20 -20 -4 -12 4 7 16 15 29 29 -20 -20 -7 25 -11 28 -20 -15 -20 -5 -20 -20 -20 -20 -20 -20 -20 -20 -20
11 13 16 -3 15 18 12 7 18 -6 1 -2 12 4 -2 -13 16 18 -20 -11 -10 -20 2 12 2 22 16 38 -18 -20 -3 -12 20 27 22 -13 8 -2 -20 -20 -20 -20 -20 -20 -20 -20 -20
13 15 -2 7 16 6 14 18 16 21 -2 -13 18 -20 -20 -19 18 18 18 7 -20 -20 -20 -8 10 31 26 -3 2 -19 3 -7 28 26 25 9 13 -12 -20 -14 -18 -20 -20 -20 -20 -20 -20
10 15 11 8 17 17 17 -5 -10 -9 -19 14 -20 -20 -3 -7 23 27 30 -20 -20 -20 -20 -20 2 -7 -20 27 -20 16 13 -20 13 29 28 17 1 14 -20 -20 -20 -20 -20 -20 -20 -20 -20
13 16 -0 0 17 15 16 2 -14 -20 2 14 -20 -1 -3 8 21 25 -7 -20 -20 -6 -18 -20 25 1 -7 27 -20 7 2 6 20 3 22 18 13 -20 -12 -14 -20 -20 -20 -20 -20 -20 -20
14 4 13 4 20 12 13 -5 10 -20 16 -8 -20 -20 -20 19 23 -20 2 -3 -20 -20 -8 5 17 19 26 -12 -20 -20 -19 -1 0 11 14 29 27 24 18 10 -7 3 -15 -20 -20 -20 -20
-10 3 11 1 19 -3 9 -16 -17 22 -20 -20 -20 -20 -18 23 26 24 -20 -20 -20 -20 -7 26 33 27 5 -20 -20 -20 -1 -7 7 9 25 -9 20 -20 7 34 21 -18 -20 -20 -20 -20 -20
-18 2 12 10 12 -20 -20 9 -12 -2 14 20 18 16 -1 23 13 24 -2 -20 -20 -19 13 21 17 21 -3 -20 -20 -20 -17 -17 -5 18 11 6 11 27 28 -4 -20 -20 -20 -20 -20 -20 -20
-20 12 11 13 -20 -20 13 11 17 20 18 14 12 10 22 -20 2 -9 -20 -14 -20 4 9 32 37 16 6 -20 -20 -3 18 -0 -13 -20 -20 -13 -20 -19 -8 -11 -11 -20 -20 -20 -20 -20 -20
-8 8 7 -15 7 6 1 11 18 18 18 -20 -20 -20 -20 -20 -15 -20 -20 -20 10 -20 23 29 30 7 -0 8 7 9 23 -5 -5 6 9 -20 -20 -20 -20 -20 -20 -20 -20 -20 -20 -20 -20
-6 -20 -8 -4 -16 -20 -4 13 18 21 -0 -20 -20 -20 -17 -20 -20 -20 -6 21 12 11 20 26 15 2 -19 4 13 18 -20 -19 -11 -20 1 -20 -20 -20 -20 -20 -20 -20 -20 -20 -20 -20 -20
-5 6 -20 -20 -20 -20 5 10 11 14 -20 -20 -14 -20 -20 -20 -20 -1 2 6 20 25 33 23 -16 -20 -20 -17 -4 16 -20 -18 -18 -20 -20 -20 -20 -20 -20 -20 -20 -20 -20 -20 -20 -20 -20
-19 -4 -4 -20 -8 -13 -2 -10 17 3 -12 -20 -20 -20 -20 -20 -20 -20 -9 11 -7 -2 -18 -20 -20 -20 -20 -3 -20 -2 -8 -20 -20 -20 -20 -20 -20 -20 -20 -20 -20 -20 -20 -20 -20 -20 -20
-20 9 3 -20 -20 -20 -20 -20 8 -11 -5 -20 -20 -20 -20 -20 -20 -20 -11 -0 13 -20 -20 -20 -20 -20 -20 -20 -20 -18 -20 -20 -20 -20 -20 -20 -20 -20 -20 -20 -20 -20 -20 -20 -20 -20 -20
-20 13 -1 -20 -20 -20 -20 -20 -11 4 -20 -20 -20 -20 -12 -20 -20 -20 -20 -20 -20 -20 -20 -20 -20 -20 -20 -20 -20 -20 -20 -20 -20 -20 -20 -20 -20 -20 -20 -20 -20 -20 -20 -20 -20 -20 -20
-20 8 -7 -20 -20 -20 -20 -20 -20 -20 -20 -20 -20 -20 -20 -20 -20 -20 -20 -20 -20 -20 -20 -20 -20 -20 -20 -20 -20 -20 -20 -20 -20 -20 -20 -20 -20 -20 -20 -20 -20 -20 -20 -20 -20 -20 -20
-20 -9 2 -2 -20 -20 -20 -20 -20 -20 -20 -20 -20 -20 -20 -20 -20 -20 -20 -20 -20 -20 -20 -20 -20 -20 -20 -20 -20 -20 -20 -20 -20 -20 -20 -20 -20 -20 -20 -20 -20 -20 -20 -20 -20 -20 -20
-20 -17 2 1 -20 -20 -20 -20 -20 -20 -20 -20 -20 -20 -15 -20 -20 -20 -20 -20 -20 -20 -20 -20 -20 -20 -20 -20 -20 -20 -20 -20 -20 -4 -20 -20 -20 -20 -20 -20 -20 -20 -20 -20 -20 -20 -20
-20 -1 7 12 -9 -20 -20 -20 -20 -20 -20 -20 -20 -12 -11 -20 -20 -20 -20 -20 -20 -20 -20 -20 -20 -20 -20 -20 -20 -20 -20 -20 -20 -20 -20 -20 -20 -20 -20 -20 -20 -20 -20 -20 -20 -20 -20
-20 -1 -15 13 7 -20 -20 -20 -20 -20 -20 -20 -20 -20 -4 -20 -20 -20 -20 -20 -20 -20 -20 -20 -20 -20 2 -20 -20 -20 -20 -20 -20 -20 -20 -20 -20 -20 -20 -20 -20 -20 -20 -20 -20 -20 -20
-12 -20 12 2 5 -8 -20 -20 -20 -20 -20 -20 -20 -20 -20 -20 -20 -20 -20 -20 -20 -20 -20 -20 -20 -20 -20 -20 -20 -20 -20 -20 -20 -20 -20 -20 -20 -20 -20 -20 -20 -20 -20 -20 -20 -20 -20
-12 -5 11 -0 9 -1 -13 -20 -20 -20 -20 -20 -20 -20 -20 -20 -20 -20 -20 -20 -20 -20 -20 -20 -20 -20 -20 -20 -20 -6 -14 -20 -20 -3 -20 -20 -20 -20 -20 -20 -20 -20 -20 -20 -20 -20 -20
3 -7 6 1 12 1 -8 -11 -20 -20 -20 -20 3 -20 -20 -20 -20 -20 -20 -20 -20 -20 -20 -20 -20 -20 -20 -20 -20 -20 -20 -20 -19 -18 -16 -5 -18 -2 -2 -19 -20 -20 -20 -20 -20 -20 -20
8 7 -3 11 16 -10 -14 -1 -20 -20 -20 -20 -20 -20 -20 -19 -20 -20 -20 -20 -20 -20 -20 -20 -20 -20 -20 -20 -20 -20 -20 -20 -20 -20 -10 0 21 -13 -1 -10 -20 -20 -20 -20 -20 -20 -20
5 3 -20 -12 16 -9 -20 7 -20 -9 -20 -20 -20 -20 -20 0 -20 -20 -20 -20 -20 -20 -20 -20 -20 -20 -20 -20 -20 -20 -20 -20 -20 -20 -20 -13 -20 -12 -4 -3 -20 -20 -20 -20 -20 -20 -20
3 -2 -20 -20 16 22 -20 -20 7 -12 7 -20 -20 -20 -20 -19 -20 -20 -20 -20 -20 -20 -20 -20 -20 -20 -20 -20 -20 -20 -20 -20 -20 -20 -20 -20 -20 -20 -20 -20 -20 -20 -20 -20 -20 -20 -20

GFSGBSN_prec_radar_036.txt.gz
Reflectivity
14 8 8 15 13 -9 14 -7 -20 -6 -8 -16 20 -4 -7 -2 18 -2 -20 10 18 -9 -17 -3 -20 9 2 23 23 -10 10 6 -20 10 -20 14 -15 -20 -20 -20 -20 -20 -20 -20 -20 -20 -20
17 2 17 10 14 6 15 8 -20 9 9 -8 6 -20 -4 -3 15 1 -12 9 16 -12 8 -20 -20 8 19 15 17 2 10 23 -20 16 -17 15 -16 -20 -20 -20 -20 -20 -20 -20 -20 -20 -20
-20 -10 12 13 14 2 18 10 21 -3 12 -1 17 -1 2 -1 -19 5 25 -11 12 3 4 5 8 13 22 17 31 20 2 32 -3 -12 -2 -20 -20 -20 -20 -20 -20 -20 -20 -20 -20 -20 -20
-15 10 -2 18 9 23 16 -1 17 -20 20 -18 -5 -6 1 17 13 -15 -18 1 4 5 1 10 -14 19 27 -10 -15 -15 -9 10 24 23 -20 -20 -20 -20 -20 -20 -20 -20 -20 -20 -20 -20 -20
6 1 14 19 7 18 15 -3 13 4 -12 5 -18 -6 -13 -20 9 -20 -3 -20 -16 10 6 -11 -10 20 26 -19 -6 -20 12 14 12 29 25 20 -18 -4 -20 -20 -20 -20 -20 -20 -20 -20 -20
8 15 14 17 13 17 10 13 18 7 2 6 18 -6 -20 -0 -5 9 -3 -14 -20 -20 -17 -20 -12 9 -11 -20 8 -16 -20 11 -8 23 24 15 15 -12 -20 -15 -20 -20 -20 -20 -20 -20 -20
6 15 15 13 16 14 14 18 11 -4 -20 2 17 -20 -20 11 24 -11 -20 -20 -20 -19 -20 -20 3 5 -20 -20 31 5 20 2 33 25 24 3 10 1 -20 -20 -20 -20 -20 -20 -20 -20 -20
-10 -1 16 -9 12 15 -0 -2 -20 17 15 11 2 -20 -11 -18 18 24 5 -20 -20 -20 -19 -20 -16 27 7 -7 33 11 -18 1 26 36 43 17 8 -20 -20 -16 -20 -20 -20 -20 -20 -20 -20
-20 -17 -3 -4 15 15 16 -5 14 7 19 21 18 20 18 -2 24 8 -13 -20 -20 -20 -20 -20 29 30 10 -10 24 -14 -14 15 23 17 31 28 -6 2 -6 -20 -2 -20 -20 -20 -20 -20 -20
-16 9 5 7 1 18 13 -19 9 14 23 15 22 25 13 14 24 27 -15 -20 -20 -20 -20 11 -11 4 -3 21 17 20 19 18 1 11 17 25 -2 18 29 19 -20 -20 -20 -20 -20 -20 -20
-20 13 -2 -20 11 8 11 -3 9 10 11 -17 -12 22 -7 -20 -20 14 -20 -20 -20 -19 3 31 10 9 28 25 19 33 18 22 10 -14 16 17 23 23 30 6 27 -18 -20 -20 -20 -20 -20
-18 17 -20 -20 -5 -19 14 7 -12 10 -3 -20 -19 -20 -20 -20 -20 -20 -8 -20 -11 -16 6 26 39 31 -0 -12 -20 5 -11 -13 -5 -15 -1 26 35 31 14 21 25 -0 -20 -20 -20 -20 -20
7 -14 -20 -20 11 13 8 7 4 -3 -14 -20 -14 -20 -20 -20 -20 -20 -15 6 -17 -13 17 -7 25 13 -17 3 -20 5 26 -8 14 12 25 -1 11 -10 -4 -3 -2 -19 -20 -20 -20 -20 -20
1 -8 -18 -20 -20 -17 -15 2 9 -19 -20 -20 -20 -20 -20 -20 -20 -20 0 -20 -17 8 22 31 13 2 5 10 -4 -7 31 -20 -20 -20 -19 -19 -6 -18 -20 -20 -20 -20 -20 -20 -20 -20 -20
11 -17 -20 -20 -20 -20 -20 11 7 6 -20 -20 -20 -20 -20 -20 -20 -20 -20 -20 10 7 26 16 2 -18 -17 6 5 18 -6 -3 -20 -20 -20 -20 -20 -20 -20 -20 -20 -20 -20 -20 -20 -20 -20
4 6 -20 -20 -20 -20 -20 -15 6 14 -20 -20 -20 -20 -20 -20 -20 -20 -20 13 0 -18 -20 -20 -20 -20 -20 -20 -20 -20 -20 -20 -20 -20 -20 -20 -20 -20 -20 -20 -20 -20 -20 -20 -20 -20 -20
0 15 -20 -20 -20 -20 -20 -20 -20 -11 -20 -20 -20 -20 -20 -20 -20 -20 -20 -20 -20 -20 -20 -20 -20 -20 -20 -20 -20 -20 -20 -20 -20 -20 -20 -20 -20 -20 -20 -20 -20 -20 -20 -20 -20 -20 -20
-11 17 -10 -20 -20 -12 -20 -20 -20 -20 -20 -20 -20 -20 -20 -20 -20 -20 -20 -20 -20 -20 -20 -20 -20 -20 -20 -20 -20 -20 -20 -20 -20 -20 -20 -20 -20 -20 -20 -20 -20 -20 -20 -20 -20 -20 -20
-20 10 14 -20 -20 -11 -18 -20 -20 -20 -20 -20 -20 -20 -20 -20 -20 -20 -20 -20 -20 -20 -20 -20 -20 -20 -20 -20 -20 -20 -20 -20 -20 -20 -20 -20 -20 -20 -20 -20 -20 -20 -20 -20 -20 -20 -20
-20 2 17 -20 -20 -19 -4 -20 -20 -20 -20 -20 -20 -20 -20 -20 -20 -20 -20 -20 -20 -20 -20 -20 -20 -20 -20 -20 -20 -20 -20 -20 -20 -20 -20 -20 -20 -20 -20 -20 -20 -20 -20 -20 -20 -20 -20
-20 -6 17 -20 -20 -20 -6 -20 -20 -20 -20 -20 -20 -20 -19 -20 -20 -20 -20 -20 -20 -20 -20 -20 -20 -20 -20 -20 -20 -20 -20 -20 -20 -20 -20 -20 -20 -20 -20 -20 -20 -20 -20 -20 -20 -20 -20
-20 -20 8 -6 -20 -19 -13 -18 -20 -20 -20 -20 -20 -20 -20 -20 -20 -20 -20 -20 -20 -20 -20 -20 -20 -20 -20 -20 -20 -20 -20 -20 -20 -20 -20 -20 -20 -20 -20 -20 -20 -20 -20 -20 -20 -20 -20
-12 -20 -20 3 -5 -20 -20 -12 -20 -20 -20 -20 -20 -13 -5 -20 -20 -20 -20 -20 -20 -20 -20 -20 -20 -12 6 -20 -20 -20 -20 -20 -20 -20 -20 -20 -20 -20 -20 -20 -20 -20 -20 -20 -20 -20 -20
14 -20 -20 10 -20 -20 -18 -12 -20 -20 -20 -20 2 -17 -20 -20 -20 -20 -20 -20 -20 -20 -20 -20 -20 -20 -20 -20 -20 -20 -20 -20 -20 -20 -20 -20 -20 -20 -20 -20 -20 -20 -20 -20 -20 -20 -20
14 9 -20 -3 -20 -20 -20 -20 -8 -20 -20 -20 -20 -20 -12 -20 -20 -20 -20 -20 -20 -20 -20 -20 -20 -20 -20 -20 -20 -11 -19 -9 -20 -20 -20 -20 -20 -20 -20 -20 -20 -20 -20 11 -20 -20 -20
5 4 -1 4 11 -20 -20 -3 -20 9 -20 -20 -19 -20 -20 -2 -20 -20 -20 -20 -20 -20 -20 -20 -20 -20 -20 -20 -20 -20 -20 -20 -19 -18 -16 -19 -20 -20 -20 -20 -20 -20 -18 -1 -20 -20 -20
-17 -9 1 -20 15 5 -20 -20 5 -7 -20 -20 -20 -20 -20 -15 -20 -20 -20 -20 -20 -20 -20 -20 -20 -20 -20 -20 -20 -20 -20 -20 -20 -20 -2 -0 12 7 -20 -4 -20 -20 -20 15 -20 -20 -20
-2 -20 11 -15 -4 19 -10 -20 -20 -10 -3 -20 -20 -20 -20 -20 -20 -20 -20 -20 -20 -20 -20 -20 -20 -20 -20 -20 -20 -20 -20 -20 -20 -20 -20 -20 -17 4 -12 5 -20 -20 -20 12 -20 -20 -20
-18 -20 4 -20 -20 -8 17 14 -16 -20 -20 -20 -20 -20 -20 -20 -20 -20 -20 -20 -20 -20 -0 -20 -20 -20 -20 -20 -20 -20 -20 -20 -20 -20 -20 -20 -20 -20 -20 -20 -20 -20 -20 -20 -20 -20 -20

GFSGBSN_prec_radar_039.txt.gz
Reflectivity
9 -12 17 12 11 -19 9 19 16 2 3 -1 -14 -20 15 12 -7 -1 -12 15 8 11 -20 22 17 -20 7 -8 11 -10 -3 -9 -20 -14 9 -4 -3 -13 -20 -20 -20 -20 -20 -20 -9 -20 -20
-20 14 11 13 9 -1 15 19 14 -18 15 16 -17 6 -3 -19 6 -3 -20 -8 -6 -20 -14 23 14 -20 10 3 -0 25 -9 -5 -20 13 8 7 -16 1 -16 -20 -17 -20 -20 -20 -20 -20 -20
-8 5 9 11 -11 13 16 14 -1 1 18 18 22 7 8 17 -1 -1 -1 -20 -19 -6 -20 23 -20 -10 -5 -17 -13 17 -13 -20 -20 5 14 8 -20 -20 -20 -20 -18 -20 -20 -20 -20 -20 -20
7 20 -1 10 16 13 16 -6 16 16 18 9 24 8 22 20 -20 -20 -20 20 -7 -3 -19 -20 -20 12 -2 -11 6 25 22 26 6 26 8 4 -19 -20 -20 -20 -20 -20 -20 -20 -20 -20 -20
16 4 8 10 14 16 11 10 13 -4 -9 -7 9 10 1 -18 -8 -1 -20 6 -18 2 7 -20 -20 -8 14 -13 -10 15 7 28 30 16 12 26 12 -1 -20 -20 -20 -20 -20 -20 -20 -20 -20
16 14 18 -10 11 21 2 1 -14 -8 21 22 18 18 8 -20 9 -17 -20 -20 -20 -20 -20 -20 -16 13 -17 -20 4 18 -19 28 26 26 31 26 23 13 -20 -20 -20 -20 -20 -20 -20 -20 -20
11 -20 11 11 12 8 15 14 -18 14 23 26 27 19 5 -20 -1 22 -20 -20 -20 -20 -12 -20 -20 -20 -20 -20 -20 7 -20 30 34 14 16 12 -20 8 3 -20 -20 -20 -20 -20 -20 -20 -20
7 -10 18 -10 11 16 -10 7 16 19 21 17 16 23 26 17 7 9 -20 -20 -20 -20 -20 -20 -20 12 -18 -20 -20 -20 21 25 32 29 20 11 -3 -20 -19 -20 -20 -20 -20 -20 -20 -20 -20
2 15 -2 -20 -20 -18 -8 19 16 14 12 6 11 -7 -7 6 22 22 -4 -20 -20 -20 -20 -20 4 6 28 -20 -6 -17 15 42 22 25 10 -20 6 -4 -20 12 -4 -20 -20 -20 -20 -20 -20
-20 -1 -2 -20 -1 14 4 19 17 15 2 -2 -7 -20 -20 -20 -20 3 3 -20 -20 -20 -20 24 10 30 0 -14 20 5 30 26 38 40 32 25 20 -1 -20 -20 5 -20 -20 -20 -20 -20 -20
-20 3 -20 -20 5 16 2 20 14 9 -1 -20 -20 -4 -19 -20 -20 -20 -20 -20 -20 -20 1 27 27 17 -6 17 12 -5 3 19 28 29 31 34 19 27 6 -1 -20 -8 -20 -20 -20 -20 -20
-20 -7 -20 -20 -20 -20 12 17 9 17 -20 -20 -20 -20 -20 -20 -20 -20 -20 -20 -20 -20 -7 -9 22 22 1 27 -17 -9 -11 -17 10 29 24 18 -10 25 32 33 11 -20 -20 -20 -20 -20 -20
-15 -17 -20 -20 -20 -2 7 19 13 8 -20 -20 -20 -20 -20 -20 -20 -20 -20 -20 -20 -9 11 -8 30 -7 -15 20 34 36 25 -3 -13 7 4 29 31 15 26 27 22 24 -20 -20 -20 -20 -20
-19 -20 -20 -20 -20 -20 -4 14 17 -18 -20 -20 -20 -20 -20 -20 -20 -20 -8 -20 -7 9 26 18 6 8 5 5 7 7 -20 16 -20 -1 -4 -20 0 19 4 21 8 16 -13 -20 -20 -20 -20
-20 1 -20 -20 -20 -20 -13 -2 12 2 -14 -20 -20 -20 -20 -20 -20 -20 -20 -20 -15 7 2 6 -18 -18 -20 -20 5 -12 25 -20 -20 -20 -20 -20 -20 -18 -20 -20 -20 -20 -20 -20 -20 -20 -20
-3 -6 -20 -20 -20 -20 -20 -20 -3 15 -9 -20 -20 -20 -20 -20 -20 -20 -20 -20 -10 -20 -20 -20 -20 -20 -20 -20 -20 -20 -20 -20 -20 -20 -20 -20 -20 -20 -20 -20 -20 -20 -20 -20 -20 -20 -20
-20 -15 -2 -20 -20 -20 -20 -20 -20 3 -20 -20 -20 -20 -20 -20 -20 -20 -20 -20 -20 -20 -20 -20 -20 -20 -20 -20 -20 -20 -20 -20 -20 -20 -20 -20 -20 -18 -20 -20 -20 -20 -20 -20 -20 -20 -20
-2 -19 -10 -20 10 -20 -18 -20 -20 -20 4 -20 -20 -20 -20 -20 -20 -20 -20 -20 -20 -20 -20 -20 -20 -20 -20 -20 -20 -20 -20 -20 -20 -20 -20 -20 -20 -20 -20 -20 -20 -20 -20 -20 -20 -20 -20
-16 -20 3 -20 8 -8 -20 -20 -20 -20 -6 -20 -20 -20 -20 -20 -20 -20 -20 -20 -20 -20 -20 -20 -20 -20 -20 -20 -20 -20 -20 -20 -20 -20 -20 -20 -20 -20 -20 -20 -20 -20 -20 -20 -20 -20 -20
-13 -20 -15 -9 -20 -13 -3 -20 -20 -20 -20 -20 -20 -20 -20 -20 -20 -20 -20 -20 -20 -20 -20 -20 -20 -20 -20 -20 -20 -20 -20 -20 -20 -20 -20 -20 -20 -20 -20 -20 -20 -20 -20 -20 -20 -20 -20
-20 -20 -20 6 -20 -20 -15 -20 -20 -20 -20 -20 -20 -20 -20 -20 -20 -20 -20 -20 -20 -20 -20 -20 -20 -20 -20 -20 -20 -20 -20 -20 -20 -20 -20 -20 -20 -20 -20 -20 -20 -20 -20 -20 -20 -20 -20
-20 -20 -20 -7 -20 -20 -20 -20 -20 -20 -20 -20 -20 -19 -20 -20 -20 -20 -20 -20 -20 -20 -20 -20 -20 -20 -20 -20 -20 -20 -20 -20 -20 -20 -20 -20 -20 -20 -20 -20 -20 -20 -20 -20 -20 -20 -20
-20 -18 -15 -13 -20 -20 -20 -20 -20 -20 -20 -20 -20 -2 2 -20 -20 -20 -20 -20 -20 -20 -20 -20 -20 -5 2 -20 -20 -20 -20 -20 -20 -20 -20 -20 -20 -20 -20 -20 -20 -20 -20 -20 -20 -20 -20
11 12 10 -20 12 -20 -20 -14 -20 -20 -20 -20 -19 -8 -18 -20 -20 -20 -20 -20 -20 -20 -20 -20 -20 -20 -20 -20 -20 -20 -20 -20 -20 -20 -20 -20 -20 -20 -20 -20 -20 -20 -20 -20 -20 -20 -20
12 12 -11 -4 5 -20 -20 -20 -20 10 -20 -20 -20 -20 -0 -20 -20 -20 -20 -20 -20 -20 -20 -20 -20 -20 -20 -20 -20 -7 6 -9 -20 -20 -20 -20 -20 -20 -20 -20 -20 -20 -20 -20 -20 -20 -20
-20 3 -20 -20 -20 19 -8 -20 5 -15 -20 -20 -20 -20 -20 -20 -20 -20 -20 -20 -20 -20 -20 -20 -20 -20 -20 -20 -20 -20 -20 -20 -9 -20 -20 -20 -20 -20 -20 -20 -20 -20 -20 -20 -5 -4 -20
-20 -20 -20 -2 -20 -6 18 -19 -20 -18 -20 -20 -20 -20 -20 -20 -20 -20 -20 -20 -20 -20 -20 -20 -20 -20 -20 -20 -20 -20 -20 -20 -20 -10 -5 -6 7 -5 -20 -16 -20 -20 -20 -14 17 6 -20
-18 -20 -20 -20 -20 -20 14 19 13 -20 -20 -20 -20 -20 -20 -20 -20 -20 -20 -20 -20 -20 -20 -20 -20 -20 -20 -20 -17 -20 -20 -20 -20 -20 -20 -14 -20 -16 1 -12 -17 -20 -20 -6 15 -14 -20
-3 2 1 -20 -20 -20 -3 12 26 -20 -20 -20 -20 -20 -20 -20 -20 -20 -20 -20 -20 -20 -20 -20 -20 -20 -20 -20 -20 -20 -20 -20 -20 -20 -20 -6 -20 -20 -20 -20 -20 -20 -20 -20 -19 -19 -20

GFSGBSN_prec_radar_042.txt.gz
Reflectivity
-18 11 -5 15 12 -3 10 17 6 10 10 18 20 20 24 5 -20 -20 -20 -20 -9 -11 -20 20 17 19 -20 -20 -11 9 -20 -18 10 -11 15 5 -4 5 -5 -20 -20 -20 -20 -20 -20 -16 -7
-18 5 7 11 11 -20 13 16 18 -2 7 17 13 7 -9 -14 -14 -19 -2 -15 5 -1 -20 25 21 19 -19 -20 -20 -10 14 -20 -1 -5 16 13 -18 -13 3 -20 -20 -20 -20 -20 -20 -20 -20
-16 9 15 8 -20 -15 14 7 -17 -0 6 7 -14 19 -12 -18 25 -19 -20 -20 -2 -8 -2 -14 13 -7 4 -20 -20 -20 4 -20 27 -20 -0 6 -20 10 -20 -19 -10 -20 -20 -20 -20 -20 -20
6 4 13 8 9 14 -14 14 -14 6 10 -1 23 24 -18 20 -20 -20 -20 -20 -20 -8 -9 -20 2 -12 -17 -20 -20 -20 -8 12 -20 -19 -15 13 -20 7 -20 -20 -12 -20 -20 -20 -20 -20 -20
1 -20 -6 9 16 -1 14 2 -5 9 14 21 20 22 28 22 -20 -6 -20 -20 -10 7 -10 -20 -16 -12 -20 -20 -20 -20 -6 -0 -20 -20 18 18 10 -4 -15 -20 -20 -20 -20 -20 -20 -20 -20
-20 -20 5 -0 9 15 1 -16 8 6 24 22 20 17 14 -20 -20 3 -20 -20 -20 -20 -12 -15 -20 -20 -20 -6 -20 -20 -20 -16 19 17 29 27 29 16 2 -20 -20 -20 -20 -20 -20 -20 -20
-2 -20 6 -20 -13 6 6 8 7 21 23 15 2 22 21 15 -8 -11 -20 -20 -20 -20 -20 -20 -20 -20 21 17 -20 -20 -2 20 28 21 18 33 25 12 -20 -20 -20 -20 -17 -20 -20 -1 -20
-20 -20 -18 -20 11 8 14 9 15 10 -9 4 4 -20 -20 23 23 -20 -14 -20 -20 -5 -20 -20 5 -20 -20 16 -6 -20 16 42 10 22 21 24 5 1 11 1 -20 -20 -20 -10 -20 -20 -20
-20 -17 -20 -20 -17 -18 9 14 14 12 7 -0 -2 -20 -20 -20 -20 12 7 -20 -20 -20 -7 7 18 -11 21 19 14 -20 23 38 28 21 28 -0 13 -20 -19 7 1 -20 -20 -6 -20 -20 -20
-20 -20 -20 -20 -20 -20 12 14 14 6 -11 -20 -20 -20 -20 -20 -19 -16 -20 -20 -20 -20 17 27 23 33 18 18 13 4 12 27 38 31 28 20 15 -20 -20 -3 6 -17 -20 -20 -20 -20 -20
-20 -20 -20 -20 -20 -20 1 18 13 6 -20 -20 -20 -20 -20 -20 -20 -8 -12 -20 -19 -20 9 21 30 8 -7 -15 -16 -11 40 38 16 22 22 24 5 9 9 -14 -20 -12 -20 -20 -20 -20 -20
-20 -8 -20 -20 -20 -20 -20 7 6 14 11 -20 -20 -20 -20 -20 -20 -20 -12 -20 -20 -5 19 29 15 16 -4 -8 0 32 40 18 30 34 32 19 27 20 5 -20 -14 -20 -20 -20 -20 -20 -20
-20 -1 -20 -20 -20 -20 -20 -20 -16 12 14 14 -20 -20 -20 -20 -20 -20 -20 -20 -13 -7 -17 25 5 10 5 16 -2 -14 17 12 27 32 39 38 30 33 26 -20 -14 -20 -18 -1 -20 -20 -20
-20 -6 -20 -20 -20 -20 -20 -20 -20 -19 15 15 -20 -20 -20 -20 -20 -20 -6 -20 -18 15 11 -11 8 4 11 9 22 16 7 0 -9 1 14 23 17 22 25 31 17 -5 -16 -18 -20 -20 -20
-20 -20 -2 -20 -20 -20 -20 -20 -20 -20 -18 9 -20 -20 -20 -20 -20 -20 -7 -20 -19 12 8 -4 -8 -19 -1 -20 19 5 -13 -20 -20 -20 -20 -10 11 26 22 12 27 22 2 -20 -20 -20 -20
-20 -20 3 -20 -20 -20 -20 -20 -20 -20 -20 -15 -20 -20 -20 -20 -20 -20 -20 -11 3 -20 -20 -20 -20 -20 -20 -20 -20 -20 -19 -20 -20 -19 -20 -16 -20 -20 -20 -20 -11 -20 -20 -20 -20 -20 -20
-20 -20 12 -20 -20 -20 -20 -20 -20 -20 -20 -20 -20 -20 -20 -20 -20 -20 -20 -8 -20 -20 -20 -20 -20 -20 -20 -20 -20 -20 -20 -20 -20 -20 -20 -20 -20 -20 -20 -20 -20 -20 -20 -20 -20 -20 -20
-8 -20 5 -10 -20 -20 -20 -20 -20 -20 -20 -20 -20 -20 -20 -20 -20 -20 -20 -20 -20 -20 -20 -20 -20 -20 -20 -20 -20 -20 -20 -20 -20 -20 -20 -20 -20 -0 -19 -20 -20 -20 -20 -20 -20 -20 -20
-13 -11 -20 4 -20 -20 -20 -20 -20 -20 3 -20 -20 -20 -20 -20 -20 -20 -20 -20 -20 -20 -20 -20 -20 -20 -20 -20 -20 -20 -20 -20 -20 -20 -20 -20 -20 -18 -17 -17 -20 -20 -20 -20 -20 -20 -20
-20 6 -20 -6 -20 -20 -20 -20 -20 -20 -20 -20 -20 3 -20 -20 -20 -20 -20 -20 -20 -20 -20 -20 -20 -20 -20 -20 -20 -20 -20 -20 -20 -20 -20 -20 -20 -20 -20 -20 -20 -20 -20 -20 -20 -20 -20
-20 -7 -7 -18 4 -20 -20 -20 -20 -20 -20 -20 -20 -20 -20 -20 -20 -20 -20 -20 -20 -20 -20 -20 -20 -20 -20 -20 -20 -20 -20 -20 -20 -20 -20 -20 -20 -20 -20 -20 -20 -20 -20 -20 -20 -20 -20
-20 12 13 -15 -6 -18 -20 -20 -20 -20 -20 -20 -20 -9 -20 -20 -20 -20 -20 -20 -20 -20 -20 -20 -20 -20 -20 -20 -20 -20 -20 -20 -20 -20 -20 -20 -20 -20 -20 -20 -20 -20 -20 -20 -20 -20 -20
6 14 13 10 12 -12 -20 -20 -20 -20 -20 -20 -20 -16 -16 -20 -20 -20 -20 -20 -20 -20 -20 -20 -20 -16 -6 -20 -20 -20 -20 -20 -20 -20 -20 -20 -20 -20 -20 -20 -20 -20 -20 -20 -20 -20 -20
10 0 -10 -20 -13 14 -16 -20 -19 -20 -20 -9 -20 -0 -20 -20 -20 -20 -20 -20 -20 -20 -20 -20 -20 -16 -20 -20 -20 -20 -20 -20 -20 -20 -20 -20 -20 -20 -20 -20 -20 -20 -20 -20 -20 -20 -20
-20 -20 -20 -20 -20 -20 16 -20 -18 -20 -20 -20 -20 -20 -11 -20 -20 -20 -20 -20 -20 -20 -20 -20 -20 -20 -20 -20 -20 -0 6 -4 -12 -20 -20 -20 -20 -20 -8 -20 -20 -20 -20 -20 -20 -20 -20
-20 -20 -20 -20 -20 -20 -1 10 -20 -20 -20 -20 -20 -20 -20 -19 -20 -20 -20 -20 -20 -20 -20 -20 -20 -20 -20 -20 4 6 -17 -20 -19 -5 -20 -20 -10 5 4 -16 -20 -20 -20 -20 -20 -18 -20
-20 -11 -20 -20 -20 -20 -20 6 20 -20 -20 -20 -20 -20 -20 -20 -20 -20 -20 -20 -20 -20 -20 -20 -20 -20 -20 7 5 -9 -13 -20 -20 -20 -0 -5 -2 10 6 -16 -20 -20 -20 -20 18 -16 -11
16 9 -18 -20 -20 -20 -20 -13 10 20 -20 -20 -20 -15 -20 -20 -20 -20 -20 -20 -20 -20 -20 -20 -17 -20 -20 9 9 7 -20 -20 -20 -20 -20 -12 1 10 6 7 -20 -20 -20 -10 -14 -20 28
15 -17 5 -20 -20 -1 -19 -20 -20 18 23 -7 -20 -8 -18 -20 -20 -20 -20 -20 -20 -20 -20 -20 -18 -20 -20 -16 -19 -20 -20 -20 -20 -3 -20 -10 -20 -20 -20 -20 -20 -20 -20 -20 -20 7 13

GFSGBSN_prec_radar_045.txt.gz
Reflectivity
-5 5 4 -13 -0 12 3 13 1 5 -11 -3 16 19 15 2 -6 -12 -4 -20 -20 0 7 -20 -15 10 -20 7 -20 -2 24 -11 26 -19 -20 1 -20 -10 -11 -20 -14 -20 -20 -20 -20 -16 7
-9 2 1 0 3 11 -12 -20 3 -10 15 12 12 25 24 12 -13 -20 -20 -20 -20 -20 -20 -20 -20 -11 12 17 -20 -20 -20 -20 14 7 -20 -19 -20 -20 -20 -20 -20 -20 -20 -20 -20 1 7
-7 -20 6 1 7 -20 5 14 -19 -12 19 20 16 -3 3 17 26 -12 -20 -20 -20 -20 -20 -20 -20 -9 22 -15 -20 -20 -17 -20 -19 21 -20 -20 -20 -20 -20 -20 -20 -20 4 -4 1 -3 -15
-19 -20 8 -4 -20 6 -0 -20 -20 11 12 19 22 -0 1 27 23 -20 -20 -3 -10 -20 -19 -20 -20 5 7 -20 -20 -20 23 -20 14 26 -20 -18 -20 -20 -20 -20 -20 -20 -20 -17 10 -0 -9
-20 -2 8 -1 7 11 -7 8 6 10 12 10 17 1 4 -20 16 -20 -20 -20 -20 -18 16 -20 -18 10 -1 -20 -20 -20 -20 -20 -1 29 -20 -19 -10 -4 -20 -6 11 -20 -20 -20 2 4 -14
-20 -3 1 -20 13 17 1 -6 -0 10 11 13 11 -7 11 -20 -20 -20 -20 -20 -20 -20 -4 -16 21 11 -20 -20 -15 -20 -14 -19 5 18 22 8 9 21 7 -11 -17 -20 -20 -20 -18 -20 -20
-20 -17 13 -20 -20 16 1 -20 9 11 11 16 13 -20 -20 -20 -20 -20 -20 -20 20 21 13 8 -20 18 21 21 26 22 14 23 23 17 8 27 21 9 -20 -20 -20 -20 -20 -6 6 -20 -20
-20 -17 0 -20 -20 16 5 -3 9 9 18 15 14 -20 -20 -20 -20 -20 -20 7 -20 7 -8 -20 -20 -20 11 11 25 28 15 24 21 10 2 3 7 -20 -20 -20 -20 -20 -20 -20 5 -16 2
-20 -17 -6 -9 -20 8 13 1 8 10 5 8 18 -20 -20 -20 -20 -14 1 -20 -17 7 24 -20 14 -9 2 9 22 27 -18 27 19 2 13 -17 -12 8 15 -20 -20 -20 -20 -20 2 -19 -20
-20 -20 -7 -5 -20 -2 11 1 8 11 5 0 10 -20 -20 -20 -20 -20 -7 3 -17 -20 17 -10 10 14 -19 18 23 3 10 21 32 12 22 20 25 28 13 16 -20 -20 -20 -20 -14 -10 -20
-20 -15 -20 -4 -20 -20 -4 -12 -0 13 3 2 8 -20 -20 -20 -20 -20 -4 5 -4 5 18 35 31 26 35 23 4 29 34 37 22 8 33 24 20 20 15 -14 -20 9 -20 -20 -20 4 -20
-20 -9 -20 -6 -4 -20 -20 -4 -2 13 8 6 12 -20 -20 -20 -20 -20 -20 -20 -10 13 18 21 21 18 21 21 18 21 36 31 26 16 26 16 12 24 10 19 -6 -20 -20 -20 -20 -12 -16
-20 -20 -2 -20 -11 -20 -20 -20 -20 -20 -2 10 13 -20 -20 -20 -20 -20 -20 -20 -4 3 -8 7 16 -3 -8 9 20 31 35 39 33 32 37 31 16 21 -3 -19 -4 -20 -16 -4 5 1 -20
-20 -20 -13 -16 -20 -20 -20 -20 -20 -20 -18 6 -20 -20 -20 -20 -20 -20 -18 -20 -20 5 6 -18 13 -11 -4 8 -4 11 19 27 28 15 25 26 25 29 20 -11 -19 -20 -3 8 -9 -20 -20
-20 -20 -20 -20 -20 -20 -20 -20 -20 -20 -20 -5 -20 -20 -20 -20 -20 -20 -18 -20 8 -5 5 4 -14 3 4 -6 -20 -11 -6 6 9 18 25 23 8 34 27 -16 -19 -20 4 -20 -20 -20 -20
-20 -20 -14 -18 -20 -20 -20 -20 -20 -20 -20 -18 -20 -20 -20 -20 -20 -15 -16 -7 3 -10 -20 -20 3 -18 8 -16 -18 -20 -7 -20 -20 -11 -1 -6 -1 28 28 23 30 18 -18 -14 -20 -20 -20
-20 -20 -20 -2 -20 -20 -20 -20 -20 -20 -20 -20 -20 -20 -20 -20 -20 -20 -20 4 -1 -20 -20 -20 -20 -20 -20 -20 -13 -16 -20 -20 -20 -20 -20 -20 -20 -9 -19 -16 4 25 15 -20 -20 -20 -20
-20 -20 -20 -20 -20 -20 -20 -20 -20 -20 -20 -20 -20 -8 -20 -20 -20 -20 -20 -20 -20 -20 -20 -20 -20 -20 -20 -20 -20 -20 -20 -20 -20 -20 -20 -20 -20 -3 6 -20 -20 -20 -19 -20 -20 -20 -20
-20 -20 -20 -20 -5 -20 -20 -20 -20 -20 -20 -5 -20 -20 -20 -20 -20 -20 -20 -20 -20 -20 -20 -20 -20 -20 -20 -20 -20 -20 -20 -20 -20 -20 -20 -20 -20 -13 -16 -17 -20 -20 -20 -20 -20 -20 -20
-20 11 -2 -20 -20 1 -20 -20 -20 -20 -20 -20 -20 -11 -20 -20 -20 -20 -20 -20 -20 -20 -20 -20 -20 -20 -20 -20 -20 -20 -20 -20 -20 -20 -20 -20 -20 -20 -20 -20 -20 -20 -20 -20 -20 -20 -20
-20 -20 -14 -17 -20 3 -20 -20 -20 -20 -20 -20 -20 -20 -20 -4 -20 -20 -20 -20 -20 -20 -20 -20 -20 -20 -20 -20 -20 -20 -20 -20 -20 -20 -20 -20 -20 -20 -20 -20 -20 -20 -20 -20 -20 -20 -20
-20 -20 -15 -20 -20 6 -20 -20 -20 -20 -20 -20 -20 -17 -20 -20 -20 -20 -20 -20 -20 -20 -20 -20 -20 -20 -20 -20 -20 -20 -20 -20 -20 -20 -20 -20 -20 -20 -20 -20 -20 -20 -20 -20 -20 -20 -20
-20 -20 -20 -20 -20 -6 -7 -20 -20 -20 -20 -20 -20 -16 -1 -20 -20 -20 -20 -20 -20 -20 -20 -20 -20 -20 -20 -20 -20 -20 -20 -20 -20 -20 -20 -20 -20 -20 -16 -20 -20 -20 -20 -20 -20 -20 -20
-20 -20 -10 -20 -20 -20 9 -20 -20 -20 -20 -20 -14 5 3 -20 -20 -20 -20 -20 -20 -20 -20 -20 -20 -20 -20 -20 -20 -20 -20 -20 -20 -20 -20 -16 2 0 -1 -20 -17 -20 -20 -20 -20 -20 -20
-20 -20 -20 -20 -20 -20 -11 -20 -20 -20 -20 -20 -20 -19 -2 -20 -20 -20 -20 -20 -20 -20 -20 -20 -20 -20 -20 -20 -14 -5 2 -2 -12 -20 -20 -20 -2 9 -7 -17 -20 -20 -20 -20 -20 -20 -20
-20 -20 -20 -20 -20 -20 -20 2 -16 -20 -20 -20 -20 -20 1 -20 -20 -20 -20 -20 -20 -18 -20 -20 -20 -20 -20 7 7 -12 -2 -9 2 6 -20 -20 -10 -17 -0 -7 -20 -20 -20 -20 -20 -17 -20
-20 -15 -20 -20 -20 -20 -20 1 -4 -20 -14 -20 -20 -20 -20 -20 -20 -20 -20 -20 -15 -15 -20 -20 -20 -20 -20 3 5 -20 -20 -20 -9 -20 -3 5 3 4 5 -10 -20 -20 -20 -20 -6 -15 -20
-18 -7 -7 -20 -20 -20 13 -8 -20 -20 7 -10 -0 -20 -20 -5 -20 -20 -20 -20 -20 -10 -12 -20 -15 -13 1 11 -1 -10 -19 -10 -18 -20 -20 -20 -16 -1 -13 7 -20 -20 -20 -4 -10 -20 -20
-16 -19 -20 -20 -20 -20 6 -20 17 -20 -20 -20 -18 -20 -20 4 5 -20 -20 -20 -20 -20 -20 -20 -18 -18 8 8 6 7 -4 -20 -20 -10 -20 -20 -20 -20 -20 -20 -20 -20 -20 -20 -20 -20 -20

GFSGBSN_prec_radar_048.txt.gz
Reflectivity
-13 -13 14 6 9 -1 8 10 -20 -11 -2 12 17 6 23 23 -8 -14 -2 -20 -18 10 18 -20 -20 -17 18 26 -15 -20 -20 27 28 24 -20 -8 -20 -19 -20 -20 -20 -9 -11 12 9 -3 -15
3 -20 2 14 7 1 6 -20 -19 10 3 14 14 4 3 22 27 -10 -20 -20 -6 8 -20 -20 -20 -20 21 28 -1 -20 -5 28 25 19 -20 -20 -20 -20 -20 -20 -20 -16 13 4 4 -20 -20
14 5 -10 -20 -5 4 -9 7 7 1 15 18 4 11 12 20 -8 -20 -8 -20 -20 -19 -20 -20 -20 -20 23 9 9 -20 -20 23 18 -18 -20 -20 -20 -20 -20 -20 -20 -20 8 12 -3 -20 -20
0 -20 -6 -20 0 -1 5 4 1 14 12 5 -9 9 10 18 8 -20 -20 -20 -20 -20 -20 -11 -20 5 -17 -20 -11 -20 -18 -11 27 29 -11 -11 -20 -10 -20 -20 -20 -16 -9 -5 10 -20 -20
-16 -20 -17 -20 -20 -1 15 9 -9 15 15 11 3 -9 11 -20 -20 -20 -20 -20 -20 -20 -2 5 -20 4 -18 -20 -20 -20 18 7 11 29 3 -20 -10 1 18 9 13 -6 -20 -19 -20 -19 -3
-20 -20 -20 -20 -20 -11 16 17 5 13 12 12 11 -20 -20 -20 -20 -20 -20 -20 -20 -20 -20 -20 -20 18 -20 8 -20 -12 6 13 20 29 28 20 16 19 3 7 -13 -20 -20 -20 -20 -19 -17
-20 -20 -20 -20 -20 -20 15 16 2 9 13 5 16 -20 -1 -20 -20 -20 -20 -20 22 10 -3 22 22 -4 -14 -14 -20 20 12 14 7 27 34 9 -20 -20 -20 -20 -20 -20 -20 -20 -20 -20 -9
-20 -20 -20 -20 -20 -16 -11 13 8 2 14 4 2 4 -20 -20 -20 -20 -20 -20 -20 -20 -12 -20 -9 -20 -20 -20 15 21 24 21 32 12 -14 -9 3 -20 -20 -20 -20 -20 -20 -20 -20 -20 -18
-20 -20 -20 -20 -20 -4 -11 -11 10 -6 3 -5 7 -3 -20 -20 -20 5 -18 -20 -20 -20 -9 -2 -20 -20 24 1 14 22 4 15 22 -14 10 8 -20 -17 -20 -20 -20 -20 -20 -20 -20 -20 -19
-20 -20 -20 -20 -20 -19 -6 -6 -20 -12 -13 4 -20 8 -19 -20 -20 -20 7 -20 -20 -20 5 5 -4 4 29 38 37 16 5 21 33 -8 10 -9 6 -20 7 5 -20 -7 -20 -20 -20 -20 -20
-20 -20 -20 -20 -20 -20 -11 -4 -20 -20 -20 11 -1 4 -17 -20 -20 -20 -20 -19 5 14 13 24 -14 -20 10 38 20 14 -16 30 -2 10 14 -17 -2 -20 -2 -19 -20 -16 -20 -20 -20 -20 -20
-20 -20 -20 -20 -20 -20 -20 -20 -20 -20 -20 -20 15 9 -20 -20 -15 -20 -20 -20 -9 -0 22 16 32 8 8 -7 12 1 12 -20 5 3 -20 -19 -20 -3 10 21 24 -18 -20 -20 -20 -20 -20
-20 -20 -20 -20 -20 -20 -20 -20 -20 -20 -20 -20 -12 -20 -15 -20 -3 -20 -20 -12 -17 -14 -10 9 23 24 19 12 11 -19 21 13 32 13 6 -3 7 -10 34 34 -5 8 -7 -12 3 -10 -20
-20 -20 -20 -20 -20 -20 -20 -20 -20 -20 -20 -20 -20 -20 -20 -20 -20 -7 -12 -3 -20 -1 -1 -20 -8 -4 3 -9 8 37 34 35 33 -1 -10 33 17 22 -4 10 28 1 -20 -12 -20 -20 -20
-20 -20 -20 -20 -20 -20 -20 -20 -20 -20 -20 -20 -20 -20 -20 -20 -20 -20 -18 -20 -19 -20 1 -16 -19 4 -12 -20 -20 -2 36 28 24 19 28 33 9 23 17 -18 -12 15 -19 -20 -20 -20 -20
-20 -20 -20 -20 -20 -20 -20 -20 -20 -20 -20 -20 -20 -20 -20 -20 -20 -18 -20 -20 -16 -9 -20 -20 -5 -20 12 8 -2 -20 2 -12 -15 -2 15 -12 -4 19 4 31 18 -13 -20 -13 -20 -20 -20
-20 -20 -20 -20 6 -14 -20 -20 -20 -20 -20 -20 -20 -20 -20 -20 -20 -20 -20 -20 -20 -20 -20 -20 -20 -20 -20 -20 -13 -14 -20 -20 -20 -8 -4 -18 -18 9 14 31 8 -20 -20 -20 -20 -20 -20
-20 -20 -20 -20 -20 13 -9 -20 -20 -20 -20 -20 -20 -20 -20 -20 -8 -7 -20 -20 -20 -20 -20 -20 -20 -20 -20 -20 -20 -20 -20 -20 -20 -20 -20 -20 -20 -1 -4 -1 10 35 25 -20 -20 -20 -20
-20 -20 -20 -20 -20 -7 -18 -20 -20 -20 -20 -17 -20 -20 -20 -20 1 -19 -20 -20 -20 -20 -20 -20 -20 -20 -20 -20 -20 -20 -20 -20 -20 -20 -20 -20 -20 -20 -20 -20 -19 -19 -5 26 2 -19 -18
-20 -20 -20 -0 -20 -15 -16 -20 -20 -20 -20 -20 -20 -14 -12 -20 -20 -6 -20 -20 -20 -20 -20 -20 -20 -20 -20 -20 -20 -20 -20 -20 -20 -20 -20 -20 -20 -20 -20 -20 -20 -20 -20 -14 -15 -20 -16
-20 -20 -20 -20 -20 -19 -12 -20 -20 -20 -20 -20 -20 -20 -20 -20 -20 -20 -20 -20 -20 -20 -20 -20 -20 -20 -20 -20 -20 -20 -20 -20 -20 -20 -20 -20 -20 -20 -20 -20 -20 -20 -20 -20 -20 -20 -20
-20 -20 -20 -20 -20 -20 -12 -20 -20 -20 -20 -20 -20 -20 -20 -20 -20 -20 -20 -20 -20 -20 -20 -20 -20 -20 -20 -20 -20 -20 -20 -20 -20 -20 -20 -20 -20 -20 -20 -20 -20 -20 -20 -20 -20 -20 -20
-20 -20 -18 -20 -20 -20 -5 -20 -20 -20 -20 -20 -20 -15 8 -20 -20 -20 -20 -20 -20 -20 -20 -20 -20 -20 -20 -20 -20 -20 -20 -20 -20 -20 -20 -20 -20 -20 -20 -20 -20 -20 -20 -20 -20 -20 -20
-20 -20 -17 -20 -20 -20 -20 -7 -10 -20 -20 -20 -20 -12 -13 -20 -20 -20 -20 -20 -20 -20 -20 -20 -20 -20 -20 -20 -20 -20 -20 -20 -20 -20 -20 -20 -13 -20 -20 -20 -20 -20 -20 -20 -20 -20 -20
-20 -20 -20 -20 -20 -20 -20 -20 -15 -20 -20 -20 -20 -20 -19 -20 -20 -20 -20 -20 -20 -20 -20 -20 -20 -20 -20 -20 -20 -20 -19 -9 -20 -20 -20 -20 -19 1 -20 -19 -20 -20 -20 -20 -20 -20 -20
-20 -20 -20 -20 -20 -20 -19 -6 -1 -20 -20 -20 -20 -20 -20 -20 -20 -20 -20 -20 -20 -20 -3 -20 -20 -20 -20 2 7 -2 5 -20 -11 4 -20 -20 -20 -3 -3 -20 -20 -20 -20 -20 -20 -20 -20
-20 -20 -12 -20 -20 -20 -1 -20 -10 -16 -16 -20 -11 -20 -20 -20 -20 -20 -20 -20 -20 -20 -20 -13 -20 -20 -20 -10 -6 1 -19 -20 -8 -20 -11 3 -1 3 8 -17 -20 -20 -20 -20 -15 -20 -20
-20 -20 -11 -20 -20 -20 -20 -18 13 -20 -20 -20 -12 -20 -20 -20 -20 -18 -19 -20 -20 -20 -16 -20 -16 -14 -9 8 1 5 -20 -20 -20 -20 -20 -20 -20 -16 0 4 -16 -20 -20 -4 -20 -20 -20
-20 -20 -17 -20 -20 -20 -18 13 -15 -15 -3 -20 6 -20 -20 -7 -20 -20 -6 -20 -20 -20 -20 -20 -17 -20 -16 9 4 -20 -20 -20 -20 -20 -20 -20 -20 -20 -20 -20 -20 -20 -20 -20 -20 -20 -20

GFSGBSN_prec_radar_051.txt.gz
Reflectivity
-19 -8 0 -17 -20 7 14 11 9 -20 1 15 12 10 6 18 5 17 -1 -20 12 -6 -20 -20 -20 -11 17 24 3 -10 -20 -12 13 16 -20 -17 -20 -1 -20 -20 -20 -20 -12 7 13 19 15
-20 -12 11 -20 2 12 13 11 6 -20 13 10 12 -9 11 1 3 -20 -20 -20 -19 -20 -20 -20 -18 -20 -7 6 29 -17 -20 -9 7 20 2 -9 -20 -20 -20 -20 -20 -20 -18 17 6 3 14
-20 -20 -20 -20 -20 15 16 11 7 -20 13 13 10 -1 3 -20 8 -20 -20 -20 -20 -20 -20 -20 -20 -20 -5 -19 14 -20 32 13 26 -7 11 -20 -20 -20 -20 -20 -20 -20 3 5 11 -20 -1
-20 -20 -2 -20 -20 5 11 15 13 0 7 12 10 -20 2 -20 -20 -20 -20 -20 -20 -20 -20 -20 9 -20 -20 -10 27 -11 -19 -20 25 26 -20 18 -20 -20 -20 -20 -20 -20 -16 -7 -4 -19 -4
-20 -20 -3 -20 -12 -20 15 16 12 7 10 11 14 -20 9 -20 -20 -20 -20 -20 -20 -20 -20 -20 -20 -20 -20 8 -15 -6 -20 26 44 21 -3 -8 -3 -20 -19 -17 -11 5 -20 -20 -12 -20 -1
-20 -20 -11 -20 -0 -20 -20 15 16 7 11 8 8 -20 -6 -20 -20 -20 -20 -20 -20 -20 -20 -20 -20 -10 -20 -13 -20 -20 -11 7 -16 25 37 22 23 -20 -20 -20 -19 -20 -20 -20 -20 -8 -14
-20 -20 -20 -12 -3 -20 -20 -20 -0 16 15 12 10 -3 -20 -20 -20 -20 -20 -20 -20 -20 -20 -20 -20 -20 -20 -20 -20 -20 37 -15 24 40 18 16 -20 -20 -20 -20 -20 -20 -20 -20 -20 -15 -19
-20 -20 -20 -20 -4 -12 -20 -20 -20 -20 16 12 8 3 -20 -20 -20 -20 -20 -20 -20 -20 -20 -15 -20 -20 -20 -20 1 -10 22 31 23 41 23 11 -20 -20 -20 -20 -20 -20 -20 -20 -20 -11 -11
-20 -20 -20 -20 -15 -1 -20 -20 -20 -18 -3 16 13 5 -12 -20 -20 -20 -20 -20 -20 -20 -20 3 -15 -12 17 22 29 8 32 19 23 26 20 5 -20 -20 -20 -20 -20 -20 -20 -20 -20 -20 -20
-20 -20 -20 -20 -20 -8 -4 -18 -20 -20 -13 4 12 14 -20 -20 -20 -20 -20 -20 -20 -20 -20 19 17 7 -1 23 35 41 15 -6 30 23 22 -20 -20 -20 -20 -20 -20 -20 -20 -20 -20 -20 -20
-20 -20 -20 -20 -20 -20 -20 -20 -20 -20 -20 -20 -15 15 -16 -20 -20 -20 -20 -20 -20 -20 -20 -14 14 22 13 14 -11 -12 -9 37 -13 12 -8 6 -18 -18 8 -20 -20 -20 -20 -20 -20 -20 -20
-20 -20 -20 -8 -20 -20 -20 -20 -20 -20 -20 -20 -1 9 -20 -20 -20 -20 -20 -20 -20 -20 -20 -15 -16 16 42 24 20 -3 11 25 -20 -20 -0 -20 -20 -20 -20 -20 10 -18 -13 -20 -20 -20 -20
-20 -20 -20 -20 -8 -20 -20 -20 -20 -20 -20 -20 -18 -20 -20 -20 -20 -20 -20 -20 -20 -20 -20 -13 10 21 14 12 -19 -20 -20 -10 -17 -20 4 -16 -20 -20 -20 -5 -18 12 -17 -2 -18 -20 -20
-20 -20 -20 -20 -17 -20 -20 -20 -20 -20 -20 -20 -20 -20 -20 -20 -20 -20 -20 -20 -20 -6 -20 -20 -9 -17 -20 -17 -18 1 9 -2 -16 -20 -20 -20 -5 11 -20 -14 16 19 -20 -20 -20 -20 -20
-20 -20 -20 -20 -20 -10 -19 -20 -20 -20 -20 -20 -20 -20 -20 -20 -20 -20 -20 -20 -20 -20 9 -3 -20 -20 -20 -20 7 35 21 -1 -6 -20 -20 -20 -18 15 -3 -4 38 17 -15 -20 -20 -20 -20
-20 -20 -20 -20 -20 -20 1 -20 -20 -20 -20 -20 -20 -20 -20 -20 -20 -20 -20 -20 -20 -20 -20 -20 -14 -20 -20 -20 -20 -19 26 -17 -1 -20 -20 -20 -15 19 16 -12 12 2 13 -2 -20 -7 -20
-20 -20 -20 -20 -20 -20 -20 -20 -20 -20 -20 -20 -20 -20 -20 -20 -20 -20 -20 -20 -20 -20 -20 -20 -20 -20 -13 -10 -2 -20 -14 -20 -20 -20 -20 -20 -20 9 20 24 3 -5 31 -14 -20 -20 -20
-20 -20 -20 -20 -20 -20 -9 -20 -20 -20 -20 -20 -20 -20 -20 -20 -20 -20 -20 -20 -20 -20 -20 -20 -20 -20 -20 -20 -20 -20 -20 -20 -20 -20 -20 -20 -20 -20 -20 -20 -20 14 23 25 -12 -20 -20
-20 -20 -20 -20 -20 -20 -12 -20 -20 -20 -20 -20 -20 -20 -20 -20 -17 -20 -20 -20 -20 -20 -20 -20 -20 -20 -20 -20 -20 -20 -20 -20 -20 -20 -20 -20 -20 -20 -19 -20 -0 24 -20 -20 -20 -20 -20
-20 -20 -20 -20 -20 -20 -20 -20 -20 -20 -20 -20 -20 -20 -9 -20 -20 -16 -20 -20 -20 -20 -20 -20 -20 -20 -20 -20 -20 -20 -20 -20 -20 -20 -20 -20 -20 -20 -20 -18 -16 -20 -16 14 18 -7 2
-20 -20 -20 -20 -20 -20 -15 -20 -20 -20 -20 -20 -20 -20 -20 -13 -20 -20 -20 -20 -20 -20 -20 -20 -20 -20 -20 -20 -20 -20 -20 -20 -20 -20 -20 -20 -20 -20 -20 -20 -20 -20 -20 -20 -10 -11 12
-20 -20 -20 -20 -20 -20 -20 -20 -20 -20 -20 -20 -20 -20 -20 -20 -20 -20 -20 -20 -20 -20 -20 -20 -20 -20 -20 -20 -20 -20 -20 -20 -20 -20 -20 -20 -20 -20 -20 -20 -20 -20 -20 -20 -20 -20 -20
-20 -20 -20 -20 -20 -20 -20 -20 -20 -20 -20 -20 -20 -20 7 -20 -20 -20 -20 -20 -20 -20 -20 -20 -20 -20 -20 -20 -20 -20 -20 -20 -20 -20 -20 -20 -20 -20 -20 -20 -20 -20 -20 -20 -20 -20 -20
-20 -20 -20 -20 -20 -20 -20 -20 -20 -20 -20 -20 -20 -20 -20 -20 -20 -20 -20 -20 -20 -20 -20 -20 -20 -20 -20 -20 -20 -20 -20 -20 -20 -20 -20 -20 -20 -20 -20 -20 -20 -20 -20 -20 -20 -20 -20
-20 -20 -20 -20 -20 -20 -20 -12 -20 -20 -20 -20 -20 -20 -20 -20 -20 -20 -20 -20 -20 -20 -20 -20 -20 -20 -20 -20 -20 -20 -20 -20 -20 -20 -20 -20 -20 -20 -20 -20 -20 -20 -20 -20 -20 -20 -20
-20 -20 -20 -20 -20 -20 -20 -20 -19 -20 -20 -20 -20 -20 -20 -20 -20 -20 -20 -20 -20 -20 -20 -20 -20 -20 -20 -20 9 3 -7 -20 -19 -19 -20 -20 -20 -20 5 -20 -20 -20 -20 -20 -20 -20 -20
-20 -20 -20 -20 -20 -20 -20 -20 -10 -20 -20 -20 -20 -20 -20 -20 -20 -20 -20 -20 -20 -20 -20 -20 -20 -20 -20 -20 -20 -10 -20 -20 -20 -20 -20 -4 3 -15 4 -7 -20 -20 -20 -20 -20 -20 -20
-20 -20 5 -20 -20 -20 -20 -20 -20 -20 -2 -20 -20 -20 -20 -20 -20 -20 -20 -20 -16 -20 -20 -15 -13 -20 -20 -20 -20 -15 -20 -20 -20 -20 -20 -20 -20 -0 4 5 -18 -20 -20 -20 -20 -20 -20
-20 -20 -20 -20 -20 -20 -20 -14 -17 -20 -20 -17 -20 -20 -19 -20 -20 -20 -20 -20 -19 -9 -20 -20 -13 -18 -20 -20 -20 -20 -20 -20 -20 -20 -20 -20 -20 -20 -20 -20 -20 -20 -20 -20 -20 -20 -20

GFSGBSN_prec_radar_054.txt.gz
Reflectivity
-13 -13 -17 -17 -20 13 6 -0 -19 -2 8 4 13 -20 9 -1 -1 -20 -20 -20 -20 -20 -20 -20 -20 -20 -20 18 -3 11 -20 -17 6 35 27 -20 -20 4 -2 -20 -20 -18 2 12 24 8 13
-1 -3 13 -20 -20 8 16 15 11 -2 3 3 18 -14 -12 6 -20 -20 -20 -20 -20 -20 -20 -20 -20 -20 -18 4 -8 28 -20 -20 8 31 23 -12 -20 0 -19 -20 -20 -20 -7 26 27 20 7
-18 -8 -10 -1 -4 -20 10 16 13 6 8 10 16 -10 -20 -15 -20 -20 -20 -20 -20 -20 -20 -20 -20 -20 -20 -19 6 1 -17 -0 -8 5 11 15 -20 -17 -20 -20 -20 -20 15 17 1 -9 -7
-6 -20 -0 -20 -11 -20 -20 10 10 7 9 8 9 -20 -19 -20 -20 -20 -20 -20 -20 -20 -20 -20 -20 -20 -20 -13 17 20 17 7 -20 26 12 15 -20 -20 -20 -20 -20 -20 -9 -12 -17 -12 -7
-20 -20 -20 -20 -20 -0 -5 -5 13 13 10 6 8 6 -20 -20 -20 -20 -20 -20 -20 -20 -20 -20 -20 -20 -20 -3 22 11 3 17 5 21 25 16 -20 -4 -20 -20 -20 -20 -20 -20 -20 -4 -0
-20 -20 -20 -20 -4 -3 -6 -5 2 -13 9 11 12 8 -14 -20 -20 -20 -20 -20 -20 -20 -20 -20 -20 -20 -20 -12 10 13 4 -17 28 19 28 22 -2 -20 -4 -20 -19 -20 -20 -20 -20 -17 -5
-20 -20 -20 -8 10 11 1 -3 -3 -12 -1 10 4 16 5 -20 -20 -20 -20 -20 -20 -20 -20 -20 -20 -20 -20 -19 -20 11 19 29 14 36 37 11 -7 -20 -20 -20 -20 -20 -20 -20 -20 -20 -11
-20 -20 -20 -16 -20 -20 -15 -6 5 -3 -14 0 7 7 1 -12 -20 -20 -20 -20 -20 -20 -20 -20 -20 -20 -20 -20 -3 9 33 34 33 41 29 18 1 -20 -20 -20 -20 -20 -20 -20 -20 -20 -20
-20 -20 -20 -20 4 -3 0 -9 -4 1 -9 -5 -10 8 8 -13 -20 -20 -20 -20 -20 -20 -20 -20 -20 -20 -20 14 -0 14 37 29 30 37 21 4 -15 -20 -20 -20 -20 -20 -20 -20 -20 -20 -20
-20 -20 -20 -4 -1 15 -20 4 -3 -3 -17 0 -4 12 8 -20 -20 -20 -20 -20 -20 -20 -20 -2 4 -12 -9 -6 20 26 32 29 37 29 24 7 -15 -15 -16 -20 -20 -20 -20 -20 -20 -20 -20
-20 -20 -20 9 12 15 -4 -4 -9 -20 -20 -20 -11 13 11 -6 -20 -20 -20 -20 -20 -20 -20 6 -9 -15 -20 1 13 31 18 21 31 39 13 -0 -19 -20 -20 -20 -20 -20 -20 -20 -20 -20 -20
-20 -20 -20 -1 6 5 -7 -20 -20 -20 -20 -20 -20 14 -20 -20 -20 -20 -20 -20 -20 -20 -20 -15 28 32 -20 29 24 -4 -6 15 23 25 3 -20 -20 -20 -20 -20 -13 -20 -20 -20 -20 -20 -20
-20 -20 -20 -16 14 3 -7 -20 -20 -20 -20 -20 -20 -12 -20 -20 -20 -20 -20 -20 -20 -20 -16 -20 -2 26 19 16 -3 -20 27 7 30 -18 -20 -20 -20 -20 -20 -20 -20 -20 -20 -20 -20 -20 -20
-20 -20 -20 -11 8 -20 -18 -20 -20 -20 -20 -20 -20 -20 -20 -20 -20 -20 -20 -20 -20 -18 -20 -15 -18 -9 2 -20 -8 -14 -18 -18 -15 -20 -20 -20 -19 -20 -20 -20 -16 -20 -20 -20 -20 -20 -20
-20 -20 -20 -20 -20 -20 -20 -6 -20 -20 -20 -20 -20 -20 -20 -20 -20 -20 -20 -20 -20 -20 -20 -19 -20 -20 -20 -20 -20 -20 -20 -19 -9 -20 -20 -20 -20 -20 -20 -20 -20 -20 22 -20 -20 -20 -20
-20 -20 -20 -20 -20 -20 -18 -8 -20 -20 -20 -20 -20 -20 -20 -20 -20 -20 -20 -20 -20 -20 -20 -20 -20 -20 -20 -20 -20 -20 -9 -17 2 -8 -20 -20 -16 -3 -20 -20 -20 -20 -20 -4 -20 -20 -20
-20 -20 -20 -20 -20 -20 -4 -20 -20 -20 -20 -20 -20 -20 -20 -20 -20 -11 -20 -20 -20 -20 -20 -20 -20 -20 -20 -20 -20 -20 -20 -20 -20 -11 -20 -20 -20 19 24 9 -0 16 35 -18 -20 -20 -20
-20 -20 -20 -20 -20 -20 -14 -20 -20 -20 -20 -20 -20 -20 -20 -20 -18 -20 -20 -20 -20 -20 -20 -20 -20 -20 -20 -20 -20 -20 -20 -20 -17 -17 -20 -20 -20 0 -11 -19 -20 -20 -20 -2 -1 -20 -20
-20 -20 -20 -20 -20 -20 -17 -20 -20 -20 -20 -20 -20 -20 -20 -20 -19 -20 -20 -20 -20 -20 -20 -20 -20 -20 -20 -20 -20 -20 -20 -20 -20 -20 -20 -20 -20 -20 -20 -13 -5 11 1 -14 -20 -18 -0
-20 -20 -20 -20 -20 -20 -20 -20 -20 -20 -20 -20 -20 -20 -20 -20 -20 -20 -20 -20 -20 -20 -20 -20 -20 -20 -20 -20 -20 -20 -20 -20 -20 -20 -20 -20 -20 -20 -20 -20 -20 -19 -20 -20 -16 4 -3
-20 -20 -20 -20 -20 -20 -20 -20 -20 -20 -20 -20 -20 -20 -20 -16 -20 -20 -20 -20 -20 -20 -20 -20 -20 -20 -20 -20 -20 -20 -20 -20 -20 -20 -20 -20 -20 -20 -20 -20 -20 -20 -20 -20 -7 -17 -20
-20 -20 -20 -20 -20 -20 -20 -20 -20 -20 -20 -20 -20 -20 -20 -20 -20 -20 -20 4 -20 -20 -20 -20 -20 -20 -20 -20 -20 -20 -20 -20 -20 -20 -20 -20 -20 -20 -20 -20 -20 -20 -20 -20 -20 -20 -20
-20 -20 -20 -20 -20 -20 -20 -20 -20 -20 -20 -20 -20 -20 -20 -20 -20 -20 -20 -20 -20 -20 -20 -20 -20 -20 -20 -20 -20 -20 -20 -20 -20 -20 -20 -20 -20 -20 -20 -20 -20 -20 -20 -20 -20 -20 -20
-20 -20 -20 -20 -20 -20 -17 -20 -20 -20 -20 -20 -20 -20 -20 -20 -20 -20 -20 -20 -20 -20 -20 -20 -20 -20 -20 -20 -20 -20 -20 -20 -20 -20 -20 -20 -20 -20 -20 -20 -20 -20 -20 -20 -20 -20 -20
-20 -20 -20 -20 -20 -20 -20 -4 -20 -20 -20 -20 -20 -20 -20 -20 -20 -20 -20 -20 -20 -20 -20 -20 -20 -20 -20 -20 -20 -20 -20 -20 -20 -20 -20 -20 -20 -20 -20 -20 -20 -20 -20 -20 -20 -20 -20
-20 -20 -20 -20 -20 -20 -20 -20 3 -20 -20 -20 -20 -20 -20 -20 -20 -20 -20 -20 -20 -20 -20 -20 -20 -20 -20 -20 3 -15 -20 -20 -20 -20 -20 -20 -20 -20 -16 -20 -20 -20 -20 -20 -20 -20 -20
-20 -20 -20 -20 -20 -20 -20 -20 -20 -20 -20 -20 -20 -20 -20 -20 -20 -20 -20 -20 -17 -20 -20 -20 -20 -20 -20 -20 -20 -15 -20 -20 -20 -20 -20 -3 1 -15 -19 -14 -20 -20 -20 -20 -20 -20 -20
-14 -20 -20 -20 -20 -20 -20 -4 12 -20 -20 -20 -20 -20 -20 -20 -20 -20 -20 -20 -20 -15 -20 1 13 -20 -20 -20 -20 -20 -20 -20 -20 -20 -20 -20 -16 3 4 4 -17 -20 -20 -20 -20 -20 -20
-20 -20 -20 -20 -20 -20 -20 -20 -20 -20 -20 -20 -20 -20 -20 -20 -20 -20 -20 -20 -20 -20 -15 2 22 -20 -16 -20 -20 -20 -20 -20 -20 -20 -20 -20 -20 -20 -20 -20 -20 -20 -20 -20 -20 -20 -20